Time,TemperatureF,DewpointF,PressureIn,WindDirection,WindDirectionDegrees,WindSpeedMPH,WindSpeedGustMPH,Humidity,HourlyPrecipIn,Conditions,Clouds,dailyrainin,SoftwareType,DateUTC
2013-03-03 00:00:00,53.5,41.0,30.04,North,6,6.2,6.8,63,0.00,,,0.21,TxWx,2013-03-03 05:00:00,
2013-03-03 00:02:00,53.3,40.0,30.04,NNW,343,6.2,6.2,61,0.00,,,0.21,TxWx,2013-03-03 05:02:00,
2013-03-03 00:03:00,53.2,40.0,30.04,NNW,343,8.7,9.9,61,0.00,,,0.21,TxWx,2013-03-03 05:03:00,
2013-03-03 00:05:00,53.1,39.0,30.04,NNW,343,8.0,10.5,60,0.00,,,0.00,TxWx,2013-03-03 05:05:00,
2013-03-03 00:08:00,53.0,39.0,30.03,NW,321,5.6,6.8,60,0.00,,,0.00,TxWx,2013-03-03 05:08:00,
2013-03-03 00:09:00,52.9,39.0,30.03,NNW,343,5.6,6.8,59,0.00,,,0.00,TxWx,2013-03-03 05:09:00,
2013-03-03 00:10:00,53.0,39.0,30.03,North,6,8.0,8.0,60,0.00,,,0.00,TxWx,2013-03-03 05:10:00,
2013-03-03 00:14:00,52.8,39.0,30.03,NW,321,5.6,6.8,60,0.00,,,0.00,TxWx,2013-03-03 05:14:00,
2013-03-03 00:15:00,52.8,39.0,30.03,NW,321,6.8,7.4,59,0.00,,,0.00,TxWx,2013-03-03 05:15:00,
2013-03-03 00:16:00,52.8,39.0,30.03,WNW,298,3.7,3.7,59,0.00,,,0.00,TxWx,2013-03-03 05:16:00,
2013-03-03 00:20:00,52.7,39.0,30.03,WNW,298,5.6,5.6,60,0.00,,,0.00,TxWx,2013-03-03 05:20:00,
2013-03-03 00:23:00,52.6,39.0,30.03,NW,321,3.7,4.3,60,0.00,,,0.00,TxWx,2013-03-03 05:23:00,
2013-03-03 00:25:00,52.5,38.0,30.03,WNW,298,3.7,3.7,59,0.00,,,0.00,TxWx,2013-03-03 05:25:00,
2013-03-03 00:28:00,52.4,38.0,30.03,NW,321,4.3,4.3,59,0.00,,,0.00,TxWx,2013-03-03 05:28:00,
2013-03-03 00:29:00,52.4,39.0,30.03,WNW,298,3.1,3.7,60,0.00,,,0.00,TxWx,2013-03-03 05:29:00,
2013-03-03 00:31:00,52.5,39.0,30.03,West,276,2.5,3.1,62,0.00,,,0.00,TxWx,2013-03-03 05:31:00,
2013-03-03 00:33:00,52.3,39.0,30.03,WNW,298,2.5,3.7,61,0.00,,,0.00,TxWx,2013-03-03 05:33:00,
2013-03-03 00:34:00,52.2,39.0,30.03,NW,321,2.5,2.5,60,0.00,,,0.00,TxWx,2013-03-03 05:34:00,
2013-03-03 00:35:00,52.1,38.0,30.03,NNW,343,7.4,7.4,60,0.00,,,0.00,TxWx,2013-03-03 05:35:00,
2013-03-03 00:37:00,52.1,39.0,30.03,West,276,3.7,4.3,60,0.00,,,0.00,TxWx,2013-03-03 05:37:00,
2013-03-03 00:38:00,52.2,39.0,30.03,NW,321,3.7,4.3,62,0.00,,,0.00,TxWx,2013-03-03 05:38:00,
2013-03-03 00:39:00,52.1,39.0,30.03,NNW,343,7.4,7.4,62,0.00,,,0.00,TxWx,2013-03-03 05:39:00,
2013-03-03 00:41:00,52.0,39.0,30.03,NNW,343,8.0,8.0,61,0.00,,,0.00,TxWx,2013-03-03 05:41:00,
2013-03-03 00:44:00,51.9,39.0,30.03,WNW,298,4.3,5.6,61,0.00,,,0.00,TxWx,2013-03-03 05:44:00,
2013-03-03 00:45:00,51.9,39.0,30.03,NW,321,5.6,5.6,61,0.00,,,0.00,TxWx,2013-03-03 05:45:00,
2013-03-03 00:47:00,51.8,39.0,30.03,NW,321,5.6,5.6,61,0.00,,,0.00,TxWx,2013-03-03 05:47:00,
2013-03-03 00:50:00,51.9,39.0,30.03,West,276,3.1,3.1,62,0.00,,,0.00,TxWx,2013-03-03 05:50:00,
2013-03-03 00:52:00,51.7,39.0,30.03,WNW,298,6.2,7.4,62,0.00,,,0.00,TxWx,2013-03-03 05:52:00,
2013-03-03 00:53:00,51.6,39.0,30.03,NW,321,5.0,7.4,60,0.00,,,0.00,TxWx,2013-03-03 05:53:00,
2013-03-03 00:55:00,51.6,39.0,30.03,NW,321,3.1,3.1,61,0.00,,,0.00,TxWx,2013-03-03 05:55:00,
2013-03-03 00:57:00,51.6,39.0,30.03,NW,321,3.1,3.1,62,0.00,,,0.00,TxWx,2013-03-03 05:57:00,
2013-03-03 00:58:00,51.7,40.0,30.03,NW,321,3.7,3.7,63,0.00,,,0.00,TxWx,2013-03-03 05:58:00,
2013-03-03 01:02:00,51.6,40.0,30.03,NW,321,5.0,5.0,63,0.00,,,0.00,TxWx,2013-03-03 06:02:00,
2013-03-03 01:03:00,51.6,40.0,30.03,NW,321,4.3,4.3,63,0.00,,,0.00,TxWx,2013-03-03 06:03:00,
2013-03-03 01:07:00,51.5,38.0,30.03,NNE,28,3.7,5.6,62,0.00,,,0.00,TxWx,2013-03-03 06:07:00,
2013-03-03 01:08:00,51.5,40.0,30.03,NW,321,5.0,5.0,63,0.00,,,0.00,TxWx,2013-03-03 06:08:00,
2013-03-03 01:09:00,51.5,40.0,30.03,NW,321,4.3,4.3,63,0.00,,,0.00,TxWx,2013-03-03 06:09:00,
2013-03-03 01:12:00,51.4,38.0,30.04,NW,321,3.7,5.0,62,0.00,,,0.00,TxWx,2013-03-03 06:12:00,
2013-03-03 01:13:00,51.4,38.0,30.04,WNW,298,6.8,8.7,61,0.00,,,0.00,TxWx,2013-03-03 06:13:00,
2013-03-03 01:14:00,51.5,40.0,30.04,WNW,298,3.1,3.1,63,0.00,,,0.00,TxWx,2013-03-03 06:14:00,
2013-03-03 01:16:00,51.3,38.0,30.04,WNW,298,5.6,5.6,61,0.00,,,0.00,TxWx,2013-03-03 06:16:00,
2013-03-03 01:20:00,51.2,38.0,30.04,NNW,343,5.0,5.0,61,0.00,,,0.00,TxWx,2013-03-03 06:20:00,
2013-03-03 01:22:00,51.2,38.0,30.04,WNW,298,3.1,4.3,62,0.00,,,0.00,TxWx,2013-03-03 06:22:00,
2013-03-03 01:23:00,51.3,38.0,30.04,West,276,3.1,3.1,62,0.00,,,0.00,TxWx,2013-03-03 06:23:00,
2013-03-03 01:25:00,51.1,38.0,30.04,WNW,298,4.3,4.3,62,0.00,,,0.00,TxWx,2013-03-03 06:25:00,
2013-03-03 01:26:00,51.2,38.0,30.04,NNW,343,4.3,4.3,62,0.00,,,0.00,TxWx,2013-03-03 06:26:00,
2013-03-03 01:28:00,51.1,39.0,30.04,West,276,3.1,3.7,63,0.00,,,0.00,TxWx,2013-03-03 06:28:00,
2013-03-03 01:31:00,51.0,39.0,30.04,NW,321,5.6,6.8,63,0.00,,,0.00,TxWx,2013-03-03 06:31:00,
2013-03-03 01:32:00,51.0,39.0,30.04,West,276,5.0,5.0,63,0.00,,,0.00,TxWx,2013-03-03 06:32:00,
2013-03-03 01:34:00,51.1,39.0,30.04,NNW,343,3.1,3.7,64,0.00,,,0.00,TxWx,2013-03-03 06:34:00,
2013-03-03 01:37:00,51.1,39.0,30.04,North,6,4.3,4.3,64,0.00,,,0.00,TxWx,2013-03-03 06:37:00,
2013-03-03 01:38:00,50.9,39.0,30.04,West,276,5.6,5.6,63,0.00,,,0.00,TxWx,2013-03-03 06:38:00,
2013-03-03 01:42:00,50.9,39.0,30.03,NW,321,7.4,7.4,64,0.00,,,0.00,TxWx,2013-03-03 06:42:00,
2013-03-03 01:43:00,50.9,39.0,30.03,WNW,298,3.1,3.1,63,0.00,,,0.00,TxWx,2013-03-03 06:43:00,
2013-03-03 01:46:00,50.9,39.0,30.03,WNW,298,5.0,5.6,64,0.00,,,0.00,TxWx,2013-03-03 06:46:00,
2013-03-03 01:47:00,50.8,39.0,30.03,WNW,298,4.3,4.3,63,0.00,,,0.00,TxWx,2013-03-03 06:47:00,
2013-03-03 01:48:00,50.9,39.0,30.03,WNW,298,2.5,3.1,64,0.00,,,0.00,TxWx,2013-03-03 06:48:00,
2013-03-03 01:51:00,51.0,39.0,30.03,NNW,343,1.9,1.9,64,0.00,,,0.00,TxWx,2013-03-03 06:51:00,
2013-03-03 01:53:00,50.9,39.0,30.03,NW,321,1.9,2.5,65,0.00,,,0.00,TxWx,2013-03-03 06:53:00,
2013-03-03 01:54:00,50.9,39.0,30.03,WSW,253,3.1,3.7,64,0.00,,,0.00,TxWx,2013-03-03 06:54:00,
2013-03-03 01:57:00,50.9,39.0,30.03,West,276,1.2,1.9,64,0.00,,,0.00,TxWx,2013-03-03 06:57:00,
2013-03-03 02:00:00,50.9,39.0,30.03,NNW,343,3.7,3.7,65,0.00,,,0.00,TxWx,2013-03-03 07:00:00,
2013-03-03 02:01:00,51.0,40.0,30.03,WNW,298,1.9,2.5,66,0.00,,,0.00,TxWx,2013-03-03 07:01:00,
2013-03-03 02:03:00,50.8,40.0,30.03,NNW,343,6.2,6.2,65,0.00,,,0.00,TxWx,2013-03-03 07:03:00,
2013-03-03 02:05:00,50.9,40.0,30.03,NW,321,3.1,3.7,65,0.00,,,0.00,TxWx,2013-03-03 07:05:00,
2013-03-03 02:06:00,51.0,40.0,30.03,NW,321,3.1,3.1,66,0.00,,,0.00,TxWx,2013-03-03 07:06:00,
2013-03-03 02:07:00,50.8,39.0,30.03,NW,321,3.1,3.1,65,0.00,,,0.00,TxWx,2013-03-03 07:07:00,
2013-03-03 02:10:00,50.8,40.0,30.03,WNW,298,3.7,3.7,65,0.00,,,0.00,TxWx,2013-03-03 07:10:00,
2013-03-03 02:11:00,50.8,39.0,30.03,NW,321,4.3,4.3,64,0.00,,,0.00,TxWx,2013-03-03 07:11:00,
2013-03-03 02:12:00,50.8,39.0,30.03,WNW,298,1.9,2.5,64,0.00,,,0.00,TxWx,2013-03-03 07:12:00,
2013-03-03 02:16:00,50.8,40.0,30.02,West,276,2.5,2.5,66,0.00,,,0.00,TxWx,2013-03-03 07:16:00,
2013-03-03 02:17:00,50.8,40.0,30.02,NW,321,2.5,3.1,66,0.00,,,0.00,TxWx,2013-03-03 07:17:00,
2013-03-03 02:21:00,50.7,39.0,30.02,NW,321,4.3,5.6,65,0.00,,,0.00,TxWx,2013-03-03 07:21:00,
2013-03-03 02:22:00,50.8,39.0,30.02,NW,321,2.5,2.5,65,0.00,,,0.00,TxWx,2013-03-03 07:22:00,
2013-03-03 02:24:00,50.7,39.0,30.02,NNW,343,3.1,3.1,64,0.00,,,0.00,TxWx,2013-03-03 07:24:00,
2013-03-03 02:28:00,50.8,40.0,30.02,NNW,343,4.3,4.3,66,0.00,,,0.00,TxWx,2013-03-03 07:28:00,
2013-03-03 02:29:00,50.6,40.0,30.02,NNW,343,5.0,5.0,65,0.00,,,0.00,TxWx,2013-03-03 07:29:00,
2013-03-03 02:30:00,50.7,40.0,30.02,WNW,298,4.3,5.0,65,0.00,,,0.00,TxWx,2013-03-03 07:30:00,
2013-03-03 02:33:00,50.8,40.0,30.01,WNW,298,1.9,1.9,66,0.00,,,0.00,TxWx,2013-03-03 07:33:00,
2013-03-03 02:35:00,50.8,40.0,30.01,NW,321,1.9,1.9,66,0.00,,,0.00,TxWx,2013-03-03 07:35:00,
2013-03-03 02:36:00,50.6,40.0,30.01,NW,321,6.2,6.8,66,0.00,,,0.00,TxWx,2013-03-03 07:36:00,
2013-03-03 02:38:00,50.8,40.0,30.01,WNW,298,2.5,2.5,67,0.00,,,0.00,TxWx,2013-03-03 07:38:00,
2013-03-03 02:41:00,50.8,40.0,30.01,WNW,298,2.5,3.1,66,0.00,,,0.00,TxWx,2013-03-03 07:41:00,
2013-03-03 02:43:00,50.9,40.0,30.01,NW,321,3.7,3.7,67,0.00,,,0.00,TxWx,2013-03-03 07:43:00,
2013-03-03 02:44:00,50.9,40.0,30.01,West,276,3.7,3.7,67,0.00,,,0.00,TxWx,2013-03-03 07:44:00,
2013-03-03 02:46:00,50.8,39.0,30.01,NW,321,3.1,4.3,65,0.00,,,0.00,TxWx,2013-03-03 07:46:00,
2013-03-03 02:47:00,50.8,39.0,30.01,WNW,298,3.7,3.7,64,0.00,,,0.00,TxWx,2013-03-03 07:47:00,
2013-03-03 02:50:00,50.9,40.0,30.01,NW,321,4.3,4.3,66,0.00,,,0.00,TxWx,2013-03-03 07:50:00,
2013-03-03 02:52:00,50.9,39.0,30.01,NW,321,3.7,3.7,65,0.00,,,0.00,TxWx,2013-03-03 07:52:00,
2013-03-03 02:56:00,50.9,39.0,30.01,NNW,343,5.0,5.0,65,0.00,,,0.00,TxWx,2013-03-03 07:56:00,
2013-03-03 02:57:00,50.8,39.0,30.01,NW,321,5.6,6.2,64,0.00,,,0.00,TxWx,2013-03-03 07:57:00,
2013-03-03 02:59:00,50.9,39.0,30.01,West,276,3.7,4.3,65,0.00,,,0.00,TxWx,2013-03-03 07:59:00,
2013-03-03 03:01:00,50.9,39.0,30.01,WNW,298,6.2,6.8,64,0.00,,,0.00,TxWx,2013-03-03 08:01:00,
2013-03-03 03:03:00,50.8,38.0,30.01,WNW,298,3.1,3.1,62,0.00,,,0.00,TxWx,2013-03-03 08:03:00,
2013-03-03 03:04:00,50.8,39.0,30.00,NW,321,2.5,3.1,63,0.00,,,0.00,TxWx,2013-03-03 08:04:00,
2013-03-03 03:08:00,50.9,39.0,30.01,West,276,5.0,5.0,65,0.00,,,0.00,TxWx,2013-03-03 08:08:00,
2013-03-03 03:10:00,50.9,39.0,30.01,West,276,2.5,2.5,63,0.00,,,0.00,TxWx,2013-03-03 08:10:00,
2013-03-03 03:11:00,50.8,39.0,30.01,WNW,298,3.1,3.7,64,0.00,,,0.00,TxWx,2013-03-03 08:11:00,
2013-03-03 03:13:00,50.9,39.0,30.01,WNW,298,5.0,5.0,65,0.00,,,0.00,TxWx,2013-03-03 08:13:00,
2013-03-03 03:15:00,51.1,40.0,30.01,NW,321,3.1,3.1,66,0.00,,,0.00,TxWx,2013-03-03 08:15:00,
2013-03-03 03:16:00,50.9,39.0,30.01,WNW,298,4.3,5.0,65,0.00,,,0.00,TxWx,2013-03-03 08:16:00,
2013-03-03 03:17:00,50.9,39.0,30.01,NW,321,2.5,2.5,64,0.00,,,0.00,TxWx,2013-03-03 08:17:00,
2013-03-03 03:18:00,50.9,39.0,30.00,WNW,298,4.3,4.3,64,0.00,,,0.00,TxWx,2013-03-03 08:18:00,
2013-03-03 03:21:00,50.9,39.0,30.01,WNW,298,5.0,5.6,64,0.00,,,0.00,TxWx,2013-03-03 08:21:00,
2013-03-03 03:22:00,50.9,39.0,30.01,NW,321,5.0,5.0,63,0.00,,,0.00,TxWx,2013-03-03 08:22:00,
2013-03-03 03:23:00,51.0,39.0,30.01,NW,321,5.6,5.6,64,0.00,,,0.00,TxWx,2013-03-03 08:23:00,
2013-03-03 03:24:00,51.0,39.0,30.01,West,276,4.3,5.6,64,0.00,,,0.00,TxWx,2013-03-03 08:24:00,
2013-03-03 03:26:00,51.0,39.0,30.01,West,276,7.4,7.4,65,0.00,,,0.00,TxWx,2013-03-03 08:26:00,
2013-03-03 03:28:00,50.9,39.0,30.02,West,276,6.8,7.4,65,0.00,,,0.00,TxWx,2013-03-03 08:28:00,
2013-03-03 03:31:00,51.0,40.0,30.01,WNW,298,8.7,8.7,66,0.00,,,0.00,TxWx,2013-03-03 08:31:00,
2013-03-03 03:32:00,50.8,39.0,30.01,West,276,7.4,8.7,65,0.00,,,0.00,TxWx,2013-03-03 08:32:00,
2013-03-03 03:34:00,50.8,39.0,30.01,WNW,298,5.6,5.6,63,0.00,,,0.00,TxWx,2013-03-03 08:34:00,
2013-03-03 03:36:00,50.7,39.0,30.00,NW,321,6.2,6.2,64,0.00,,,0.00,TxWx,2013-03-03 08:36:00,
2013-03-03 03:37:00,50.7,39.0,30.01,WNW,298,5.0,5.0,64,0.00,,,0.00,TxWx,2013-03-03 08:37:00,
2013-03-03 03:38:00,50.9,40.0,30.01,West,276,4.3,4.3,65,0.00,,,0.00,TxWx,2013-03-03 08:38:00,
2013-03-03 03:39:00,50.9,40.0,30.01,WNW,298,6.2,6.2,66,0.00,,,0.00,TxWx,2013-03-03 08:39:00,
2013-03-03 03:42:00,50.7,40.0,30.00,NW,321,3.1,3.1,65,0.00,,,0.00,TxWx,2013-03-03 08:42:00,
2013-03-03 03:44:00,50.7,39.0,30.00,WNW,298,4.3,4.3,65,0.00,,,0.00,TxWx,2013-03-03 08:44:00,
2013-03-03 03:46:00,50.8,40.0,30.00,NW,321,3.1,3.1,67,0.00,,,0.00,TxWx,2013-03-03 08:46:00,
2013-03-03 03:48:00,50.8,40.0,30.00,WNW,298,4.3,4.3,67,0.00,,,0.00,TxWx,2013-03-03 08:48:00,
2013-03-03 03:52:00,50.9,40.0,30.00,WNW,298,5.0,6.2,67,0.00,,,0.00,TxWx,2013-03-03 08:52:00,
2013-03-03 03:53:00,50.8,40.0,30.00,WNW,298,6.2,6.2,66,0.00,,,0.00,TxWx,2013-03-03 08:53:00,
2013-03-03 03:54:00,50.8,40.0,30.00,WNW,298,5.6,6.2,65,0.00,,,0.00,TxWx,2013-03-03 08:54:00,
2013-03-03 03:58:00,50.8,40.0,30.00,WNW,298,3.1,4.3,67,0.00,,,0.00,TxWx,2013-03-03 08:58:00,
2013-03-03 03:59:00,50.8,40.0,30.00,NW,321,3.1,3.1,66,0.00,,,0.00,TxWx,2013-03-03 08:59:00,
2013-03-03 04:00:00,50.8,40.0,30.00,NW,321,3.1,4.3,66,0.00,,,0.00,TxWx,2013-03-03 09:00:00,
2013-03-03 04:03:00,50.8,40.0,30.00,NW,321,3.7,3.7,67,0.00,,,0.00,TxWx,2013-03-03 09:03:00,
2013-03-03 04:04:00,50.7,40.0,30.00,WNW,298,4.3,4.3,66,0.00,,,0.00,TxWx,2013-03-03 09:04:00,
2013-03-03 04:07:00,50.9,40.0,30.00,WNW,298,3.1,3.1,67,0.00,,,0.00,TxWx,2013-03-03 09:07:00,
2013-03-03 04:09:00,50.9,40.0,30.00,West,276,1.9,2.5,66,0.00,,,0.00,TxWx,2013-03-03 09:09:00,
2013-03-03 04:11:00,50.8,40.0,30.00,WNW,298,4.3,4.3,66,0.00,,,0.00,TxWx,2013-03-03 09:11:00,
2013-03-03 04:12:00,50.8,40.0,30.00,WNW,298,3.1,3.1,65,0.00,,,0.00,TxWx,2013-03-03 09:12:00,
2013-03-03 04:16:00,50.8,40.0,29.99,WNW,298,4.3,4.3,67,0.00,,,0.00,TxWx,2013-03-03 09:16:00,
2013-03-03 04:18:00,50.8,40.0,30.00,NW,321,3.7,3.7,66,0.00,,,0.00,TxWx,2013-03-03 09:18:00,
2013-03-03 04:22:00,50.9,40.0,30.00,WNW,298,4.3,5.6,67,0.00,,,0.00,TxWx,2013-03-03 09:22:00,
2013-03-03 04:23:00,50.8,40.0,30.00,NW,321,3.7,4.3,66,0.00,,,0.00,TxWx,2013-03-03 09:23:00,
2013-03-03 04:26:00,50.9,40.0,30.00,West,276,3.7,4.3,67,0.00,,,0.00,TxWx,2013-03-03 09:26:00,
2013-03-03 04:28:00,50.8,40.0,30.00,NW,321,3.1,3.1,67,0.00,,,0.00,TxWx,2013-03-03 09:28:00,
2013-03-03 04:31:00,50.9,41.0,30.00,WNW,298,4.3,5.0,68,0.00,,,0.00,TxWx,2013-03-03 09:31:00,
2013-03-03 04:32:00,50.9,41.0,30.00,NW,321,4.3,4.3,68,0.00,,,0.00,TxWx,2013-03-03 09:32:00,
2013-03-03 04:35:00,50.8,40.0,30.00,WNW,298,5.0,5.6,66,0.00,,,0.00,TxWx,2013-03-03 09:35:00,
2013-03-03 04:36:00,50.9,41.0,30.00,WNW,298,5.6,6.2,68,0.00,,,0.00,TxWx,2013-03-03 09:36:00,
2013-03-03 04:38:00,51.0,41.0,30.00,WNW,298,5.0,5.0,68,0.00,,,0.00,TxWx,2013-03-03 09:38:00,
2013-03-03 04:41:00,50.9,41.0,30.00,WNW,298,2.5,3.1,68,0.00,,,0.00,TxWx,2013-03-03 09:41:00,
2013-03-03 04:42:00,51.0,40.0,30.00,NW,321,4.3,4.3,67,0.00,,,0.00,TxWx,2013-03-03 09:42:00,
2013-03-03 04:43:00,50.9,40.0,30.00,NW,321,5.6,5.6,67,0.00,,,0.00,TxWx,2013-03-03 09:43:00,
2013-03-03 04:46:00,50.8,40.0,30.00,West,276,5.6,5.6,67,0.00,,,0.00,TxWx,2013-03-03 09:46:00,
2013-03-03 04:47:00,51.0,41.0,30.00,NW,321,4.3,4.3,68,0.00,,,0.00,TxWx,2013-03-03 09:47:00,
2013-03-03 04:49:00,50.9,40.0,30.00,NW,321,5.0,5.0,66,0.00,,,0.00,TxWx,2013-03-03 09:49:00,
2013-03-03 04:52:00,51.0,40.0,30.00,WNW,298,5.6,6.2,67,0.00,,,0.00,TxWx,2013-03-03 09:52:00,
2013-03-03 04:55:00,51.0,40.0,30.00,NW,321,6.2,6.8,66,0.00,,,0.00,TxWx,2013-03-03 09:55:00,
2013-03-03 04:58:00,51.2,40.0,30.00,West,276,3.7,4.3,67,0.00,,,0.00,TxWx,2013-03-03 09:58:00,
2013-03-03 04:59:00,51.1,40.0,30.00,WNW,298,5.6,6.8,66,0.00,,,0.00,TxWx,2013-03-03 09:59:00,
2013-03-03 05:02:00,51.1,39.0,30.00,NW,321,5.6,6.8,65,0.00,,,0.00,TxWx,2013-03-03 10:02:00,
2013-03-03 05:04:00,51.1,39.0,30.00,NW,321,5.0,6.2,64,0.00,,,0.00,TxWx,2013-03-03 10:04:00,
2013-03-03 05:05:00,51.1,39.0,30.00,NW,321,6.8,8.0,64,0.00,,,0.00,TxWx,2013-03-03 10:05:00,
2013-03-03 05:07:00,51.1,39.0,30.00,NW,321,4.3,5.0,64,0.00,,,0.00,TxWx,2013-03-03 10:07:00,
2013-03-03 05:09:00,51.2,39.0,30.00,WNW,298,4.3,4.3,64,0.00,,,0.00,TxWx,2013-03-03 10:09:00,
2013-03-03 05:11:00,51.3,39.0,30.01,NNW,343,5.0,5.0,65,0.00,,,0.00,TxWx,2013-03-03 10:11:00,
2013-03-03 05:13:00,51.2,39.0,30.00,NNW,343,7.4,8.0,63,0.00,,,0.00,TxWx,2013-03-03 10:13:00,
2013-03-03 05:16:00,51.2,38.0,30.00,WNW,298,6.2,6.2,62,0.00,,,0.00,TxWx,2013-03-03 10:16:00,
2013-03-03 05:18:00,51.3,38.0,30.00,WNW,298,4.3,4.3,62,0.00,,,0.00,TxWx,2013-03-03 10:18:00,
2013-03-03 05:22:00,51.3,38.0,30.00,WNW,298,3.1,3.7,62,0.00,,,0.00,TxWx,2013-03-03 10:22:00,
2013-03-03 05:23:00,51.3,38.0,30.01,WNW,298,6.2,6.2,62,0.00,,,0.00,TxWx,2013-03-03 10:23:00,
2013-03-03 05:24:00,51.2,38.0,30.01,WNW,298,6.8,6.8,62,0.00,,,0.00,TxWx,2013-03-03 10:24:00,
2013-03-03 05:28:00,51.5,39.0,30.01,WNW,298,5.0,5.0,64,0.00,,,0.00,TxWx,2013-03-03 10:28:00,
2013-03-03 05:29:00,51.2,38.0,30.01,WNW,298,5.6,6.8,62,0.00,,,0.00,TxWx,2013-03-03 10:29:00,
2013-03-03 05:32:00,51.2,38.0,30.02,WNW,298,6.2,7.4,61,0.00,,,0.00,TxWx,2013-03-03 10:32:00,
2013-03-03 05:34:00,51.2,38.0,30.02,NW,321,4.3,5.0,62,0.00,,,0.00,TxWx,2013-03-03 10:34:00,
2013-03-03 05:37:00,51.3,39.0,30.02,WNW,298,5.6,6.2,63,0.00,,,0.00,TxWx,2013-03-03 10:37:00,
2013-03-03 05:38:00,51.2,39.0,30.02,WNW,298,6.2,6.2,63,0.00,,,0.00,TxWx,2013-03-03 10:38:00,
2013-03-03 05:39:00,51.2,39.0,30.02,NW,321,4.3,5.0,63,0.00,,,0.00,TxWx,2013-03-03 10:39:00,
2013-03-03 05:40:00,51.3,39.0,30.02,West,276,9.3,9.3,63,0.00,,,0.00,TxWx,2013-03-03 10:40:00,
2013-03-03 05:44:00,51.1,39.0,30.02,West,276,6.2,6.8,63,0.00,,,0.00,TxWx,2013-03-03 10:44:00,
2013-03-03 05:45:00,51.2,39.0,30.02,NW,321,6.2,6.8,63,0.00,,,0.00,TxWx,2013-03-03 10:45:00,
2013-03-03 05:46:00,51.2,39.0,30.02,WNW,298,6.8,6.8,63,0.00,,,0.00,TxWx,2013-03-03 10:46:00,
2013-03-03 05:50:00,51.1,39.0,30.02,WNW,298,6.8,6.8,64,0.00,,,0.00,TxWx,2013-03-03 10:50:00,
2013-03-03 05:51:00,51.1,39.0,30.02,West,276,6.2,6.2,64,0.00,,,0.00,TxWx,2013-03-03 10:51:00,
2013-03-03 05:55:00,50.9,39.0,30.02,WNW,298,3.7,3.7,63,0.00,,,0.00,TxWx,2013-03-03 10:55:00,
2013-03-03 05:56:00,50.8,39.0,30.02,West,276,6.8,6.8,63,0.00,,,0.00,TxWx,2013-03-03 10:56:00,
2013-03-03 05:59:00,50.9,39.0,30.02,WNW,298,4.3,5.0,64,0.00,,,0.00,TxWx,2013-03-03 10:59:00,
2013-03-03 06:01:00,50.8,38.0,30.02,WNW,298,6.8,6.8,62,0.00,,,0.00,TxWx,2013-03-03 11:01:00,
2013-03-03 06:04:00,51.0,39.0,30.02,WNW,298,5.6,5.6,64,0.00,,,0.00,TxWx,2013-03-03 11:04:00,
2013-03-03 06:06:00,50.9,39.0,30.02,WNW,298,4.3,5.0,64,0.00,,,0.00,TxWx,2013-03-03 11:06:00,
2013-03-03 06:07:00,50.8,38.0,30.02,WNW,298,5.0,5.0,62,0.00,,,0.00,TxWx,2013-03-03 11:07:00,
2013-03-03 06:09:00,50.8,39.0,30.02,WNW,298,5.0,5.0,63,0.00,,,0.00,TxWx,2013-03-03 11:09:00,
2013-03-03 06:11:00,50.8,38.0,30.02,WNW,298,5.0,5.6,62,0.00,,,0.00,TxWx,2013-03-03 11:11:00,
2013-03-03 06:15:00,51.0,39.0,30.02,WNW,298,5.6,5.6,64,0.00,,,0.00,TxWx,2013-03-03 11:15:00,
2013-03-03 06:16:00,50.9,39.0,30.03,NNW,343,5.0,6.2,64,0.00,,,0.00,TxWx,2013-03-03 11:16:00,
2013-03-03 06:17:00,50.8,39.0,30.02,NW,321,6.8,6.8,63,0.00,,,0.00,TxWx,2013-03-03 11:17:00,
2013-03-03 06:20:00,50.8,39.0,30.03,WNW,298,6.8,6.8,63,0.00,,,0.00,TxWx,2013-03-03 11:20:00,
2013-03-03 06:21:00,50.8,38.0,30.03,WNW,298,5.6,6.2,62,0.00,,,0.00,TxWx,2013-03-03 11:21:00,
2013-03-03 06:22:00,50.8,39.0,30.03,WNW,298,6.2,6.8,63,0.00,,,0.00,TxWx,2013-03-03 11:22:00,
2013-03-03 06:24:00,50.8,39.0,30.03,NW,321,6.2,6.2,64,0.00,,,0.00,TxWx,2013-03-03 11:24:00,
2013-03-03 06:26:00,50.7,39.0,30.03,WNW,298,5.6,5.6,63,0.00,,,0.00,TxWx,2013-03-03 11:26:00,
2013-03-03 06:27:00,50.7,39.0,30.03,WNW,298,5.0,5.0,63,0.00,,,0.00,TxWx,2013-03-03 11:27:00,
2013-03-03 06:30:00,50.7,39.0,30.03,NW,321,5.6,7.4,64,0.00,,,0.00,TxWx,2013-03-03 11:30:00,
2013-03-03 06:31:00,50.7,39.0,30.03,NW,321,5.6,5.6,63,0.00,,,0.00,TxWx,2013-03-03 11:31:00,
2013-03-03 06:33:00,50.6,39.0,30.03,West,276,5.6,6.2,63,0.00,,,0.00,TxWx,2013-03-03 11:33:00,
2013-03-03 06:38:00,50.6,39.0,30.03,West,276,7.4,8.0,63,0.00,,,0.00,TxWx,2013-03-03 11:38:00,
2013-03-03 06:39:00,50.8,39.0,30.03,WNW,298,4.3,6.2,65,0.00,,,0.00,TxWx,2013-03-03 11:39:00,
2013-03-03 06:41:00,50.5,39.0,30.03,West,276,6.2,6.8,64,0.00,,,0.00,TxWx,2013-03-03 11:41:00,
2013-03-03 06:44:00,50.4,38.0,30.03,WNW,298,7.4,7.4,63,0.00,,,0.00,TxWx,2013-03-03 11:44:00,
2013-03-03 06:45:00,50.6,39.0,30.03,NW,321,5.6,6.2,64,0.00,,,0.00,TxWx,2013-03-03 11:45:00,
2013-03-03 06:46:00,50.6,39.0,30.03,WNW,298,5.6,5.6,65,0.00,,,0.00,TxWx,2013-03-03 11:46:00,
2013-03-03 06:47:00,50.4,38.0,30.03,WNW,298,5.6,5.6,63,0.00,,,0.00,TxWx,2013-03-03 11:47:00,
2013-03-03 06:50:00,50.5,38.0,30.03,NW,321,4.3,4.3,64,0.00,,,0.00,TxWx,2013-03-03 11:50:00,
2013-03-03 06:54:00,50.5,40.0,30.03,WNW,298,5.6,5.6,66,0.00,,,0.00,TxWx,2013-03-03 11:54:00,
2013-03-03 06:55:00,50.4,38.0,30.04,WNW,298,6.2,6.2,65,0.00,,,0.00,TxWx,2013-03-03 11:55:00,
2013-03-03 06:56:00,50.4,38.0,30.04,WNW,298,3.7,4.3,65,0.00,,,0.00,TxWx,2013-03-03 11:56:00,
2013-03-03 07:00:00,50.4,38.0,30.04,NW,321,3.7,4.3,65,0.00,,,0.00,TxWx,2013-03-03 12:00:00,
2013-03-03 07:01:00,50.4,39.0,30.04,WNW,298,4.3,4.3,66,0.00,,,0.00,TxWx,2013-03-03 12:01:00,
2013-03-03 07:02:00,50.3,39.0,30.04,WNW,298,5.0,5.0,65,0.00,,,0.00,TxWx,2013-03-03 12:02:00,
2013-03-03 07:06:00,50.3,38.0,30.04,WNW,298,5.6,6.2,65,0.00,,,0.00,TxWx,2013-03-03 12:06:00,
2013-03-03 07:08:00,50.2,38.0,30.04,WNW,298,5.0,5.6,65,0.00,,,0.00,TxWx,2013-03-03 12:08:00,
2013-03-03 07:12:00,50.1,38.0,30.04,WNW,298,6.2,6.2,65,0.00,,,0.00,TxWx,2013-03-03 12:12:00,
2013-03-03 07:14:00,50.1,38.0,30.04,NW,321,5.0,5.0,64,0.00,,,0.00,TxWx,2013-03-03 12:14:00,
2013-03-03 07:17:00,50.1,39.0,30.03,NW,321,4.3,4.3,65,0.00,,,0.00,TxWx,2013-03-03 12:17:00,
2013-03-03 07:20:00,50.2,39.0,30.03,WNW,298,6.8,7.4,67,0.00,,,0.00,TxWx,2013-03-03 12:20:00,
2013-03-03 07:22:00,50.1,39.0,30.03,WNW,298,3.7,4.3,66,0.00,,,0.00,TxWx,2013-03-03 12:22:00,
2013-03-03 07:25:00,50.1,39.0,30.03,WNW,298,5.0,5.6,66,0.00,,,0.00,TxWx,2013-03-03 12:25:00,
2013-03-03 07:27:00,50.0,39.0,30.03,NW,321,5.0,5.6,66,0.00,,,0.00,TxWx,2013-03-03 12:27:00,
2013-03-03 07:29:00,50.0,39.0,30.04,WNW,298,6.8,6.8,67,0.00,,,0.00,TxWx,2013-03-03 12:29:00,
2013-03-03 07:31:00,49.8,39.0,30.04,WNW,298,5.0,6.8,66,0.00,,,0.00,TxWx,2013-03-03 12:31:00,
2013-03-03 07:32:00,49.8,39.0,30.03,West,276,5.6,6.8,67,0.00,,,0.00,TxWx,2013-03-03 12:32:00,
2013-03-03 07:34:00,49.9,40.0,30.03,NW,321,6.8,6.8,68,0.00,,,0.00,TxWx,2013-03-03 12:34:00,
2013-03-03 07:36:00,49.9,40.0,30.04,NW,321,6.2,6.2,68,0.00,,,0.00,TxWx,2013-03-03 12:36:00,
2013-03-03 07:37:00,49.8,39.0,30.04,NW,321,5.0,5.0,67,0.00,,,0.00,TxWx,2013-03-03 12:37:00,
2013-03-03 07:39:00,50.0,40.0,30.04,WNW,298,3.7,4.3,69,0.00,,,0.00,TxWx,2013-03-03 12:39:00,
2013-03-03 07:41:00,50.0,40.0,30.05,West,276,7.4,8.7,69,0.00,,,0.00,TxWx,2013-03-03 12:41:00,
2013-03-03 07:45:00,49.8,40.0,30.04,NW,321,8.0,9.3,70,0.00,,,0.00,TxWx,2013-03-03 12:45:00,
2013-03-03 07:46:00,49.9,41.0,30.04,WNW,298,9.3,10.5,70,0.00,,,0.00,TxWx,2013-03-03 12:46:00,
2013-03-03 07:47:00,49.5,40.0,30.04,WNW,298,8.0,9.9,69,0.00,,,0.00,TxWx,2013-03-03 12:47:00,
2013-03-03 07:50:00,49.5,40.0,30.04,WNW,298,5.0,6.2,70,0.00,,,0.00,TxWx,2013-03-03 12:50:00,
2013-03-03 07:51:00,49.3,39.0,30.04,WNW,298,5.6,5.6,69,0.00,,,0.00,TxWx,2013-03-03 12:51:00,
2013-03-03 07:52:00,49.2,39.0,30.04,NW,321,4.3,5.0,69,0.00,,,0.00,TxWx,2013-03-03 12:52:00,
2013-03-03 07:56:00,48.7,39.0,30.05,WNW,298,5.6,5.6,68,0.00,,,0.00,TxWx,2013-03-03 12:56:00,
2013-03-03 07:57:00,48.3,37.0,30.05,NW,321,7.4,8.0,66,0.00,,,0.00,TxWx,2013-03-03 12:57:00,
2013-03-03 08:01:00,48.4,38.0,30.05,WNW,298,5.0,5.0,69,0.00,,,0.00,TxWx,2013-03-03 13:01:00,
2013-03-03 08:02:00,48.2,38.0,30.05,NW,321,5.6,5.6,68,0.00,,,0.00,TxWx,2013-03-03 13:02:00,
2013-03-03 08:04:00,48.2,38.0,30.05,WNW,298,11.8,11.8,69,0.00,,,0.00,TxWx,2013-03-03 13:04:00,
2013-03-03 08:06:00,47.9,38.0,30.05,NW,321,8.7,10.5,68,0.00,,,0.00,TxWx,2013-03-03 13:06:00,
2013-03-03 08:08:00,47.8,38.0,30.05,WNW,298,10.5,10.5,69,0.00,,,0.00,TxWx,2013-03-03 13:08:00,
2013-03-03 08:11:00,47.5,38.0,30.05,WNW,298,6.2,6.2,68,0.00,,,0.00,TxWx,2013-03-03 13:11:00,
2013-03-03 08:12:00,47.5,38.0,30.05,NW,321,6.2,6.8,69,0.00,,,0.00,TxWx,2013-03-03 13:12:00,
2013-03-03 08:13:00,47.4,37.0,30.05,NNW,343,7.4,9.3,69,0.00,,,0.00,TxWx,2013-03-03 13:13:00,
2013-03-03 08:18:00,47.6,39.0,30.06,NW,321,5.0,6.8,70,0.00,,,0.00,TxWx,2013-03-03 13:18:00,
2013-03-03 08:19:00,47.7,39.0,30.06,NW,321,7.4,7.4,70,0.00,,,0.00,TxWx,2013-03-03 13:19:00,
2013-03-03 08:23:00,47.5,38.0,30.05,West,276,4.3,5.0,70,0.00,,,0.00,TxWx,2013-03-03 13:23:00,
2013-03-03 08:24:00,47.6,39.0,30.05,NW,321,4.3,4.3,70,0.00,,,0.00,TxWx,2013-03-03 13:24:00,
2013-03-03 08:25:00,47.4,37.0,30.05,WNW,298,4.3,4.3,69,0.00,,,0.00,TxWx,2013-03-03 13:25:00,
2013-03-03 08:29:00,47.9,38.0,30.06,WNW,298,5.6,6.8,70,0.00,,,0.00,TxWx,2013-03-03 13:29:00,
2013-03-03 08:30:00,48.1,38.0,30.06,WNW,298,3.1,3.7,70,0.00,,,0.00,TxWx,2013-03-03 13:30:00,
2013-03-03 08:35:00,48.2,38.0,30.06,NW,321,6.8,6.8,68,0.00,,,0.00,TxWx,2013-03-03 13:35:00,
2013-03-03 08:36:00,48.2,38.0,30.06,NW,321,7.4,7.4,68,0.00,,,0.00,TxWx,2013-03-03 13:36:00,
2013-03-03 08:41:00,48.3,37.0,30.06,NW,321,4.3,4.3,66,0.00,,,0.00,TxWx,2013-03-03 13:41:00,
2013-03-03 08:42:00,48.5,37.0,30.06,NNW,343,5.6,6.8,66,0.00,,,0.00,TxWx,2013-03-03 13:42:00,
2013-03-03 08:43:00,48.3,36.0,30.06,North,6,4.3,4.3,64,0.00,,,0.00,TxWx,2013-03-03 13:43:00,
2013-03-03 08:46:00,48.9,38.0,30.06,WNW,298,5.0,5.0,67,0.00,,,0.00,TxWx,2013-03-03 13:46:00,
2013-03-03 08:47:00,49.0,39.0,30.07,NNW,343,7.4,7.4,67,0.00,,,0.00,TxWx,2013-03-03 13:47:00,
2013-03-03 08:49:00,49.1,38.0,30.06,NNW,343,5.0,5.0,66,0.00,,,0.00,TxWx,2013-03-03 13:49:00,
2013-03-03 08:52:00,48.7,37.0,30.06,WNW,298,3.7,4.3,62,0.00,,,0.00,TxWx,2013-03-03 13:52:00,
2013-03-03 08:53:00,48.7,36.0,30.06,NNW,343,4.3,5.0,61,0.00,,,0.00,TxWx,2013-03-03 13:53:00,
2013-03-03 08:55:00,48.7,36.0,30.06,North,6,6.2,6.8,61,0.00,,,0.00,TxWx,2013-03-03 13:55:00,
2013-03-03 08:57:00,48.9,36.0,30.06,NNW,343,8.7,8.7,62,0.00,,,0.00,TxWx,2013-03-03 13:57:00,
2013-03-03 08:59:00,49.2,37.0,30.06,West,276,3.1,3.7,63,0.00,,,0.00,TxWx,2013-03-03 13:59:00,
2013-03-03 09:00:00,49.3,37.0,30.06,WNW,298,5.0,5.0,62,0.00,,,0.00,TxWx,2013-03-03 14:00:00,
2013-03-03 09:02:00,49.6,38.0,30.07,North,6,3.7,5.0,63,0.00,,,0.00,TxWx,2013-03-03 14:02:00,
2013-03-03 09:04:00,49.3,36.0,30.06,NNW,343,6.2,8.0,60,0.00,,,0.00,TxWx,2013-03-03 14:04:00,
2013-03-03 09:05:00,49.2,35.0,30.06,WNW,298,6.2,6.2,59,0.00,,,0.00,TxWx,2013-03-03 14:05:00,
2013-03-03 09:07:00,49.1,35.0,30.06,NNW,343,5.6,6.2,59,0.00,,,0.00,TxWx,2013-03-03 14:07:00,
2013-03-03 09:09:00,49.0,36.0,30.07,NW,321,7.4,8.0,60,0.00,,,0.00,TxWx,2013-03-03 14:09:00,
2013-03-03 09:11:00,49.0,35.0,30.07,NW,321,6.8,6.8,59,0.00,,,0.00,TxWx,2013-03-03 14:11:00,
2013-03-03 09:13:00,49.3,36.0,30.06,WNW,298,5.6,6.8,60,0.00,,,0.00,TxWx,2013-03-03 14:13:00,
2013-03-03 09:14:00,49.4,35.0,30.07,NW,321,6.8,8.0,60,0.00,,,0.00,TxWx,2013-03-03 14:14:00,
2013-03-03 09:17:00,49.8,37.0,30.07,NNW,343,5.6,6.2,60,0.00,,,0.00,TxWx,2013-03-03 14:17:00,
2013-03-03 09:18:00,49.9,37.0,30.06,WNW,298,3.1,3.7,60,0.00,,,0.00,TxWx,2013-03-03 14:18:00,
2013-03-03 09:20:00,50.1,37.0,30.07,NW,321,5.0,5.0,61,0.00,,,0.00,TxWx,2013-03-03 14:20:00,
2013-03-03 09:23:00,50.2,36.0,30.07,NW,321,4.3,4.3,59,0.00,,,0.00,TxWx,2013-03-03 14:23:00,
2013-03-03 09:25:00,50.3,36.0,30.07,NW,321,6.8,6.8,59,0.00,,,0.00,TxWx,2013-03-03 14:25:00,
2013-03-03 09:28:00,50.3,36.0,30.07,West,276,4.3,5.0,58,0.00,,,0.00,TxWx,2013-03-03 14:28:00,
2013-03-03 09:30:00,50.5,36.0,30.07,NW,321,6.2,6.2,59,0.00,,,0.00,TxWx,2013-03-03 14:30:00,
2013-03-03 09:32:00,50.5,36.0,30.07,NW,321,6.2,6.8,59,0.00,,,0.00,TxWx,2013-03-03 14:32:00,
2013-03-03 09:35:00,50.3,35.0,30.07,NW,321,6.2,8.0,57,0.00,,,0.00,TxWx,2013-03-03 14:35:00,
2013-03-03 09:36:00,50.5,37.0,30.07,North,6,3.1,3.1,58,0.00,,,0.00,TxWx,2013-03-03 14:36:00,
2013-03-03 09:37:00,50.4,36.0,30.07,NNW,343,5.0,6.8,58,0.00,,,0.00,TxWx,2013-03-03 14:37:00,
2013-03-03 09:38:00,50.7,37.0,30.07,NW,321,8.7,8.7,59,0.00,,,0.00,TxWx,2013-03-03 14:38:00,
2013-03-03 09:40:00,50.9,37.0,30.07,NW,321,3.7,4.3,58,0.00,,,0.00,TxWx,2013-03-03 14:40:00,
2013-03-03 09:41:00,51.0,37.0,30.07,West,276,3.7,4.3,58,0.00,,,0.00,TxWx,2013-03-03 14:41:00,
2013-03-03 09:43:00,50.8,37.0,30.07,NW,321,7.4,9.9,59,0.00,,,0.00,TxWx,2013-03-03 14:43:00,
2013-03-03 09:46:00,50.9,37.0,30.07,WNW,298,5.0,5.6,59,0.00,,,0.00,TxWx,2013-03-03 14:46:00,
2013-03-03 09:47:00,50.9,37.0,30.07,NW,321,8.0,8.7,59,0.00,,,0.00,TxWx,2013-03-03 14:47:00,
2013-03-03 09:50:00,50.9,36.0,30.07,WNW,298,2.5,3.7,56,0.00,,,0.00,TxWx,2013-03-03 14:50:00,
2013-03-03 09:51:00,51.1,36.0,30.07,NW,321,3.7,4.3,57,0.00,,,0.00,TxWx,2013-03-03 14:51:00,
2013-03-03 09:53:00,51.3,37.0,30.07,West,276,4.3,5.6,59,0.00,,,0.00,TxWx,2013-03-03 14:53:00,
2013-03-03 09:55:00,51.3,36.0,30.07,North,6,6.2,6.2,57,0.00,,,0.00,TxWx,2013-03-03 14:55:00,
2013-03-03 09:57:00,51.6,38.0,30.07,NNW,343,4.3,4.3,58,0.00,,,0.00,TxWx,2013-03-03 14:57:00,
2013-03-03 09:58:00,51.4,36.0,30.08,NW,321,5.0,5.6,57,0.00,,,0.00,TxWx,2013-03-03 14:58:00,
2013-03-03 10:00:00,51.7,38.0,30.07,NW,321,3.7,3.7,58,0.00,,,0.00,TxWx,2013-03-03 15:00:00,
2013-03-03 10:03:00,51.9,38.0,30.08,West,276,5.0,5.0,58,0.00,,,0.00,TxWx,2013-03-03 15:03:00,
2013-03-03 10:04:00,51.8,38.0,30.08,NW,321,9.9,9.9,58,0.00,,,0.00,TxWx,2013-03-03 15:04:00,
2013-03-03 10:08:00,51.9,37.0,30.08,NW,321,4.3,4.3,57,0.00,,,0.00,TxWx,2013-03-03 15:08:00,
2013-03-03 10:09:00,51.9,37.0,30.08,WNW,298,8.0,8.0,57,0.00,,,0.00,TxWx,2013-03-03 15:09:00,
2013-03-03 10:12:00,52.2,38.0,30.07,WNW,298,6.8,6.8,59,0.00,,,0.00,TxWx,2013-03-03 15:12:00,
2013-03-03 10:15:00,52.2,37.0,30.07,NW,321,11.1,11.1,57,0.00,,,0.00,TxWx,2013-03-03 15:15:00,
2013-03-03 10:16:00,52.1,37.0,30.07,NW,321,5.6,5.6,56,0.00,,,0.00,TxWx,2013-03-03 15:16:00,
2013-03-03 10:17:00,52.0,37.0,30.07,WNW,298,9.3,9.3,56,0.00,,,0.00,TxWx,2013-03-03 15:17:00,
2013-03-03 10:20:00,52.2,37.0,30.07,WNW,298,8.7,9.9,57,0.00,,,0.00,TxWx,2013-03-03 15:20:00,
2013-03-03 10:21:00,52.6,39.0,30.07,WNW,298,8.0,8.0,59,0.00,,,0.00,TxWx,2013-03-03 15:21:00,
2013-03-03 10:22:00,52.9,39.0,30.07,NNW,343,5.6,5.6,59,0.00,,,0.00,TxWx,2013-03-03 15:22:00,
2013-03-03 10:24:00,53.1,39.0,30.07,WNW,298,5.0,6.2,59,0.00,,,0.00,TxWx,2013-03-03 15:24:00,
2013-03-03 10:25:00,52.7,38.0,30.07,WNW,298,15.5,16.1,57,0.00,,,0.00,TxWx,2013-03-03 15:25:00,
2013-03-03 10:27:00,52.5,38.0,30.07,NW,321,10.5,12.4,57,0.00,,,0.00,TxWx,2013-03-03 15:27:00,
2013-03-03 10:29:00,52.5,37.0,30.07,West,276,7.4,8.7,55,0.00,,,0.00,TxWx,2013-03-03 15:29:00,
2013-03-03 10:30:00,52.3,36.0,30.07,NW,321,6.8,6.8,54,0.00,,,0.00,TxWx,2013-03-03 15:30:00,
2013-03-03 10:31:00,52.3,36.0,30.07,WNW,298,6.2,6.8,54,0.00,,,0.00,TxWx,2013-03-03 15:31:00,
2013-03-03 10:34:00,52.5,37.0,30.07,NW,321,5.0,5.6,54,0.00,,,0.00,TxWx,2013-03-03 15:34:00,
2013-03-03 10:35:00,52.7,37.0,30.07,NNW,343,8.0,8.7,55,0.00,,,0.00,TxWx,2013-03-03 15:35:00,
2013-03-03 10:36:00,52.7,37.0,30.07,NW,321,7.4,7.4,54,0.00,,,0.00,TxWx,2013-03-03 15:36:00,
2013-03-03 10:40:00,52.9,37.0,30.07,WNW,298,8.7,9.3,55,0.00,,,0.00,TxWx,2013-03-03 15:40:00,
2013-03-03 10:42:00,52.7,36.0,30.07,NNW,343,12.4,12.4,53,0.00,,,0.00,TxWx,2013-03-03 15:42:00,
2013-03-03 10:46:00,52.8,36.0,30.07,NW,321,9.3,10.5,53,0.00,,,0.00,TxWx,2013-03-03 15:46:00,
2013-03-03 10:48:00,53.0,36.0,30.06,NW,321,8.0,8.7,53,0.00,,,0.00,TxWx,2013-03-03 15:48:00,
2013-03-03 10:51:00,53.1,37.0,30.07,West,276,6.8,10.5,55,0.00,,,0.00,TxWx,2013-03-03 15:51:00,
2013-03-03 10:53:00,52.9,36.0,30.07,NW,321,9.9,11.1,52,0.00,,,0.00,TxWx,2013-03-03 15:53:00,
2013-03-03 10:54:00,53.0,37.0,30.07,WNW,298,11.1,12.4,54,0.00,,,0.00,TxWx,2013-03-03 15:54:00,
2013-03-03 10:58:00,53.0,36.0,30.07,WNW,298,6.8,8.7,52,0.00,,,0.00,TxWx,2013-03-03 15:58:00,
2013-03-03 10:59:00,53.2,36.0,30.07,NW,321,9.3,10.5,53,0.00,,,0.00,TxWx,2013-03-03 15:59:00,
2013-03-03 11:01:00,53.3,36.0,30.07,NW,321,6.8,7.4,53,0.00,,,0.00,TxWx,2013-03-03 16:01:00,
2013-03-03 11:03:00,53.2,36.0,30.07,WNW,298,10.5,10.5,52,0.00,,,0.00,TxWx,2013-03-03 16:03:00,
2013-03-03 11:04:00,53.3,36.0,30.07,NW,321,7.4,7.4,53,0.00,,,0.00,TxWx,2013-03-03 16:04:00,
2013-03-03 11:07:00,53.6,38.0,30.07,NNW,343,9.9,9.9,54,0.00,,,0.00,TxWx,2013-03-03 16:07:00,
2013-03-03 11:08:00,53.5,36.0,30.07,WNW,298,6.8,6.8,52,0.00,,,0.00,TxWx,2013-03-03 16:08:00,
2013-03-03 11:10:00,53.4,36.0,30.07,WNW,298,9.9,9.9,52,0.00,,,0.00,TxWx,2013-03-03 16:10:00,
2013-03-03 11:12:00,53.7,37.0,30.07,NNE,28,5.6,5.6,53,0.00,,,0.00,TxWx,2013-03-03 16:12:00,
2013-03-03 11:14:00,53.8,37.0,30.07,West,276,4.3,4.3,52,0.00,,,0.00,TxWx,2013-03-03 16:14:00,
2013-03-03 11:17:00,53.6,36.0,30.07,WNW,298,6.8,6.8,51,0.00,,,0.00,TxWx,2013-03-03 16:17:00,
2013-03-03 11:20:00,53.8,36.0,30.07,NW,321,6.2,6.2,52,0.00,,,0.00,TxWx,2013-03-03 16:20:00,
2013-03-03 11:23:00,53.9,36.0,30.07,WNW,298,8.7,10.5,51,0.00,,,0.00,TxWx,2013-03-03 16:23:00,
2013-03-03 11:24:00,54.1,37.0,30.07,NW,321,5.6,6.8,53,0.00,,,0.00,TxWx,2013-03-03 16:24:00,
2013-03-03 11:25:00,54.3,37.0,30.07,NW,321,9.3,9.3,52,0.00,,,0.00,TxWx,2013-03-03 16:25:00,
2013-03-03 11:28:00,54.0,35.0,30.07,NW,321,6.2,6.2,50,0.00,,,0.00,TxWx,2013-03-03 16:28:00,
2013-03-03 11:30:00,54.1,36.0,30.07,WNW,298,9.9,9.9,51,0.00,,,0.00,TxWx,2013-03-03 16:30:00,
2013-03-03 11:32:00,54.0,36.0,30.07,NW,321,11.1,12.4,52,0.00,,,0.00,TxWx,2013-03-03 16:32:00,
2013-03-03 11:36:00,54.5,39.0,30.07,West,276,13.0,16.1,54,0.00,,,0.00,TxWx,2013-03-03 16:36:00,
2013-03-03 11:37:00,54.6,38.0,30.07,WNW,298,5.0,6.2,54,0.00,,,0.00,TxWx,2013-03-03 16:37:00,
2013-03-03 11:39:00,54.1,35.0,30.06,WNW,298,9.9,12.4,49,0.00,,,0.00,TxWx,2013-03-03 16:39:00,
2013-03-03 11:41:00,54.0,36.0,30.06,NW,321,9.3,9.9,50,0.00,,,0.00,TxWx,2013-03-03 16:41:00,
2013-03-03 11:43:00,54.2,37.0,30.06,West,276,8.7,9.3,53,0.00,,,0.00,TxWx,2013-03-03 16:43:00,
2013-03-03 11:45:00,54.2,36.0,30.06,WNW,298,11.1,12.4,51,0.00,,,0.00,TxWx,2013-03-03 16:45:00,
2013-03-03 11:46:00,54.2,35.0,30.06,WNW,298,11.1,11.8,50,0.00,,,0.00,TxWx,2013-03-03 16:46:00,
2013-03-03 11:48:00,54.5,37.0,30.06,WNW,298,9.3,9.3,53,0.00,,,0.00,TxWx,2013-03-03 16:48:00,
2013-03-03 11:51:00,54.3,36.0,30.05,WNW,298,9.3,10.5,51,0.00,,,0.00,TxWx,2013-03-03 16:51:00,
2013-03-03 11:53:00,54.8,38.0,30.05,WNW,298,9.9,9.9,53,0.00,,,0.00,TxWx,2013-03-03 16:53:00,
2013-03-03 11:56:00,54.5,35.0,30.05,WNW,298,5.0,6.2,50,0.00,,,0.00,TxWx,2013-03-03 16:56:00,
2013-03-03 11:57:00,54.6,37.0,30.05,WNW,298,5.0,5.0,50,0.00,,,0.00,TxWx,2013-03-03 16:57:00,
2013-03-03 12:02:00,55.0,37.0,30.05,NNW,343,5.6,5.6,50,0.00,,,0.00,TxWx,2013-03-03 17:02:00,
2013-03-03 12:07:00,55.0,36.0,30.05,WNW,298,7.4,7.4,49,0.00,,,0.00,TxWx,2013-03-03 17:07:00,
2013-03-03 12:08:00,55.3,36.0,30.05,WNW,298,4.3,4.3,49,0.00,,,0.00,TxWx,2013-03-03 17:08:00,
2013-03-03 12:12:00,54.8,35.0,30.05,West,276,11.8,12.4,47,0.00,,,0.00,TxWx,2013-03-03 17:12:00,
2013-03-03 12:13:00,55.0,36.0,30.05,NW,321,9.3,11.8,49,0.00,,,0.00,TxWx,2013-03-03 17:13:00,
2013-03-03 12:17:00,55.2,36.0,30.04,WSW,253,9.9,11.8,50,0.00,,,0.00,TxWx,2013-03-03 17:17:00,
2013-03-03 12:18:00,55.2,37.0,30.05,West,276,14.9,14.9,51,0.00,,,0.00,TxWx,2013-03-03 17:18:00,
2013-03-03 12:23:00,55.3,36.0,30.05,WNW,298,10.5,11.1,48,0.00,,,0.00,TxWx,2013-03-03 17:23:00,
2013-03-03 12:24:00,55.3,35.0,30.05,NW,321,8.0,8.0,47,0.00,,,0.00,TxWx,2013-03-03 17:24:00,
2013-03-03 12:29:00,55.9,37.0,30.05,WNW,298,12.4,12.4,49,0.00,,,0.00,TxWx,2013-03-03 17:29:00,
2013-03-03 12:34:00,56.2,37.0,30.04,NW,321,7.4,9.3,49,0.00,,,0.00,TxWx,2013-03-03 17:34:00,
2013-03-03 12:35:00,56.1,36.0,30.04,West,276,10.5,11.1,47,0.00,,,0.00,TxWx,2013-03-03 17:35:00,
2013-03-03 12:40:00,55.6,37.0,30.04,WNW,298,11.1,11.1,48,0.00,,,0.00,TxWx,2013-03-03 17:40:00,
2013-03-03 12:41:00,55.8,37.0,30.04,WNW,298,9.9,11.8,49,0.00,,,0.00,TxWx,2013-03-03 17:41:00,
2013-03-03 12:42:00,56.2,37.0,30.04,NW,321,15.5,15.5,49,0.00,,,0.00,TxWx,2013-03-03 17:42:00,
2013-03-03 12:45:00,56.4,37.0,30.04,WNW,298,6.2,6.8,50,0.00,,,0.00,TxWx,2013-03-03 17:45:00,
2013-03-03 12:46:00,56.2,36.0,30.04,WNW,298,9.9,12.4,48,0.00,,,0.00,TxWx,2013-03-03 17:46:00,
2013-03-03 12:49:00,56.9,38.0,30.03,WNW,298,10.5,13.6,50,0.00,,,0.00,TxWx,2013-03-03 17:49:00,
2013-03-03 12:51:00,56.4,35.0,30.03,WNW,298,14.2,14.2,46,0.00,,,0.00,TxWx,2013-03-03 17:51:00,
2013-03-03 12:52:00,56.5,37.0,30.03,West,276,14.2,15.5,48,0.00,,,0.00,TxWx,2013-03-03 17:52:00,
2013-03-03 12:54:00,56.8,39.0,30.03,WNW,298,18.6,19.8,51,0.00,,,0.00,TxWx,2013-03-03 17:54:00,
2013-03-03 12:56:00,56.5,37.0,30.03,WSW,253,14.9,14.9,48,0.00,,,0.00,TxWx,2013-03-03 17:56:00,
2013-03-03 12:58:00,56.6,38.0,30.03,West,276,12.4,13.0,49,0.00,,,0.00,TxWx,2013-03-03 17:58:00,
2013-03-03 13:01:00,57.3,38.0,30.03,WNW,298,8.0,8.0,49,0.00,,,0.00,TxWx,2013-03-03 18:01:00,
2013-03-03 13:03:00,57.6,39.0,30.03,NW,321,8.0,8.0,49,0.00,,,0.00,TxWx,2013-03-03 18:03:00,
2013-03-03 13:07:00,57.2,37.0,30.02,NW,321,10.5,10.5,48,0.00,,,0.00,TxWx,2013-03-03 18:07:00,
2013-03-03 13:08:00,56.6,36.0,30.02,West,276,16.7,18.6,46,0.00,,,0.00,TxWx,2013-03-03 18:08:00,
2013-03-03 13:09:00,56.5,37.0,30.02,WNW,298,12.4,15.5,48,0.00,,,0.00,TxWx,2013-03-03 18:09:00,
2013-03-03 13:13:00,56.7,39.0,30.02,WNW,298,8.0,10.5,51,0.00,,,0.00,TxWx,2013-03-03 18:13:00,
2013-03-03 13:15:00,56.5,36.0,30.02,NW,321,14.2,14.9,47,0.00,,,0.00,TxWx,2013-03-03 18:15:00,
2013-03-03 13:20:00,56.4,36.0,30.02,WNW,298,9.9,11.1,48,0.00,,,0.00,TxWx,2013-03-03 18:20:00,
2013-03-03 13:21:00,56.6,39.0,30.02,West,276,19.8,19.8,51,0.00,,,0.00,TxWx,2013-03-03 18:21:00,
2013-03-03 13:25:00,56.3,37.0,30.02,WNW,298,12.4,12.4,48,0.00,,,0.00,TxWx,2013-03-03 18:25:00,
2013-03-03 13:26:00,56.4,38.0,30.02,WNW,298,16.1,16.1,50,0.00,,,0.00,TxWx,2013-03-03 18:26:00,
2013-03-03 13:27:00,56.6,39.0,30.01,West,276,17.3,18.6,51,0.00,,,0.00,TxWx,2013-03-03 18:27:00,
2013-03-03 13:31:00,56.5,37.0,30.01,WNW,298,17.9,17.9,50,0.00,,,0.00,TxWx,2013-03-03 18:31:00,
2013-03-03 13:32:00,57.0,40.0,30.01,WNW,298,15.5,16.7,54,0.00,,,0.00,TxWx,2013-03-03 18:32:00,
2013-03-03 13:33:00,56.2,36.0,30.01,West,276,13.6,16.7,48,0.00,,,0.00,TxWx,2013-03-03 18:33:00,
2013-03-03 13:36:00,56.4,38.0,30.01,West,276,14.9,17.9,50,0.00,,,0.00,TxWx,2013-03-03 18:36:00,
2013-03-03 13:37:00,56.0,37.0,30.01,WNW,298,14.9,16.1,49,0.00,,,0.00,TxWx,2013-03-03 18:37:00,
2013-03-03 13:40:00,56.4,38.0,30.01,WSW,253,7.4,8.7,52,0.00,,,0.00,TxWx,2013-03-03 18:40:00,
2013-03-03 13:41:00,56.4,38.0,30.01,WNW,298,14.2,14.2,51,0.00,,,0.00,TxWx,2013-03-03 18:41:00,
2013-03-03 13:44:00,56.4,37.0,30.01,West,276,11.1,12.4,49,0.00,,,0.00,TxWx,2013-03-03 18:44:00,
2013-03-03 13:46:00,55.9,38.0,30.01,WNW,298,19.8,19.8,50,0.00,,,0.00,TxWx,2013-03-03 18:46:00,
2013-03-03 13:48:00,55.5,37.0,30.01,WNW,298,18.6,21.7,49,0.00,,,0.00,TxWx,2013-03-03 18:48:00,
2013-03-03 13:49:00,55.8,37.0,30.01,WNW,298,14.9,14.9,50,0.00,,,0.00,TxWx,2013-03-03 18:49:00,
2013-03-03 13:51:00,56.2,39.0,30.01,WNW,298,11.1,14.9,52,0.00,,,0.00,TxWx,2013-03-03 18:51:00,
2013-03-03 13:54:00,56.4,39.0,30.01,WNW,298,12.4,13.6,53,0.00,,,0.00,TxWx,2013-03-03 18:54:00,
2013-03-03 13:56:00,56.4,39.0,30.01,West,276,11.8,11.8,53,0.00,,,0.00,TxWx,2013-03-03 18:56:00,
2013-03-03 13:59:00,56.8,40.0,30.01,WNW,298,12.4,12.4,52,0.00,,,0.00,TxWx,2013-03-03 18:59:00,
2013-03-03 14:01:00,56.8,39.0,30.01,WNW,298,11.1,11.8,51,0.00,,,0.00,TxWx,2013-03-03 19:01:00,
2013-03-03 14:04:00,56.6,39.0,30.01,NNW,343,10.5,12.4,52,0.00,,,0.00,TxWx,2013-03-03 19:04:00,
2013-03-03 14:06:00,56.5,39.0,30.01,WNW,298,11.8,11.8,51,0.00,,,0.00,TxWx,2013-03-03 19:06:00,
2013-03-03 14:10:00,56.6,39.0,30.01,WNW,298,16.7,16.7,50,0.00,,,0.00,TxWx,2013-03-03 19:10:00,
2013-03-03 14:11:00,56.0,37.0,30.02,WNW,298,14.2,16.7,50,0.00,,,0.00,TxWx,2013-03-03 19:11:00,
2013-03-03 14:13:00,56.4,39.0,30.02,WNW,298,11.1,12.4,54,0.00,,,0.00,TxWx,2013-03-03 19:13:00,
2013-03-03 14:15:00,56.4,38.0,30.02,NW,321,8.0,9.3,51,0.00,,,0.00,TxWx,2013-03-03 19:15:00,
2013-03-03 14:17:00,56.4,38.0,30.02,NW,321,9.9,9.9,51,0.00,,,0.00,TxWx,2013-03-03 19:17:00,
2013-03-03 14:18:00,56.6,40.0,30.01,WNW,298,7.4,8.7,53,0.00,,,0.00,TxWx,2013-03-03 19:18:00,
2013-03-03 14:21:00,56.9,40.0,30.01,West,276,11.8,13.0,53,0.00,,,0.00,TxWx,2013-03-03 19:21:00,
2013-03-03 14:22:00,57.0,41.0,30.01,West,276,17.9,17.9,55,0.00,,,0.00,TxWx,2013-03-03 19:22:00,
2013-03-03 14:24:00,56.8,40.0,30.01,West,276,16.1,16.7,53,0.00,,,0.00,TxWx,2013-03-03 19:24:00,
2013-03-03 14:27:00,56.4,37.0,30.01,WNW,298,9.9,10.5,49,0.00,,,0.00,TxWx,2013-03-03 19:27:00,
2013-03-03 14:28:00,56.4,37.0,30.01,WNW,298,8.7,8.7,50,0.00,,,0.00,TxWx,2013-03-03 19:28:00,
2013-03-03 14:29:00,56.8,40.0,30.01,WNW,298,15.5,16.7,52,0.00,,,0.00,TxWx,2013-03-03 19:29:00,
2013-03-03 14:33:00,56.9,39.0,30.01,West,276,16.1,16.7,50,0.00,,,0.00,TxWx,2013-03-03 19:33:00,
2013-03-03 14:36:00,57.0,40.0,30.01,WNW,298,13.6,13.6,54,0.00,,,0.00,TxWx,2013-03-03 19:36:00,
2013-03-03 14:39:00,57.0,40.0,30.01,WNW,298,16.1,16.1,54,0.00,,,0.00,TxWx,2013-03-03 19:39:00,
2013-03-03 14:42:00,56.8,38.0,30.01,WNW,298,9.9,11.1,50,0.00,,,0.00,TxWx,2013-03-03 19:42:00,
2013-03-03 14:43:00,56.9,39.0,30.01,WNW,298,17.9,18.6,52,0.00,,,0.00,TxWx,2013-03-03 19:43:00,
2013-03-03 14:44:00,56.8,39.0,30.01,WNW,298,14.2,14.2,51,0.00,,,0.00,TxWx,2013-03-03 19:44:00,
2013-03-03 14:47:00,57.3,39.0,30.01,WNW,298,13.0,14.9,50,0.00,,,0.00,TxWx,2013-03-03 19:47:00,
2013-03-03 14:49:00,57.3,38.0,30.01,NW,321,9.3,9.9,49,0.00,,,0.00,TxWx,2013-03-03 19:49:00,
2013-03-03 14:53:00,56.5,39.0,30.01,West,276,22.9,26.6,52,0.00,,,0.00,TxWx,2013-03-03 19:53:00,
2013-03-03 14:54:00,56.5,39.0,30.01,WSW,253,15.5,17.3,52,0.00,,,0.00,TxWx,2013-03-03 19:54:00,
2013-03-03 14:56:00,56.8,38.0,30.00,NNW,343,9.9,11.8,49,0.00,,,0.00,TxWx,2013-03-03 19:56:00,
2013-03-03 14:57:00,57.0,39.0,30.00,NW,321,11.8,17.9,50,0.00,,,0.00,TxWx,2013-03-03 19:57:00,
2013-03-03 15:00:00,57.1,39.0,30.01,NW,321,11.8,11.8,52,0.00,,,0.00,TxWx,2013-03-03 20:00:00,
2013-03-03 15:01:00,57.2,38.0,30.00,WNW,298,12.4,13.6,50,0.00,,,0.00,TxWx,2013-03-03 20:01:00,
2013-03-03 15:03:00,57.0,38.0,30.00,WNW,298,12.4,14.2,50,0.00,,,0.00,TxWx,2013-03-03 20:03:00,
2013-03-03 15:04:00,56.9,38.0,30.00,West,276,17.3,17.9,49,0.00,,,0.00,TxWx,2013-03-03 20:04:00,
2013-03-03 15:05:00,57.3,39.0,30.00,WNW,298,15.5,15.5,51,0.00,,,0.00,TxWx,2013-03-03 20:05:00,
2013-03-03 15:09:00,57.0,37.0,30.00,WNW,298,13.6,14.9,48,0.00,,,0.00,TxWx,2013-03-03 20:09:00,
2013-03-03 15:10:00,57.6,40.0,30.01,WNW,298,8.0,11.8,52,0.00,,,0.00,TxWx,2013-03-03 20:10:00,
2013-03-03 15:11:00,57.8,40.0,30.01,WNW,298,17.9,17.9,52,0.00,,,0.00,TxWx,2013-03-03 20:11:00,
2013-03-03 15:14:00,57.1,37.0,30.01,West,276,14.2,14.2,48,0.00,,,0.00,TxWx,2013-03-03 20:14:00,
2013-03-03 15:16:00,57.8,41.0,30.01,WNW,298,10.5,13.0,53,0.00,,,0.00,TxWx,2013-03-03 20:16:00,
2013-03-03 15:20:00,57.6,40.0,30.01,WNW,298,13.6,14.9,51,0.00,,,0.00,TxWx,2013-03-03 20:20:00,
2013-03-03 15:21:00,57.4,38.0,30.01,NNW,343,12.4,12.4,50,0.00,,,0.00,TxWx,2013-03-03 20:21:00,
2013-03-03 15:22:00,57.6,40.0,30.01,WNW,298,18.6,18.6,52,0.00,,,0.00,TxWx,2013-03-03 20:22:00,
2013-03-03 15:26:00,57.1,37.0,30.01,WNW,298,14.2,14.2,48,0.00,,,0.00,TxWx,2013-03-03 20:26:00,
2013-03-03 15:27:00,57.1,37.0,30.01,West,276,13.6,14.2,48,0.00,,,0.00,TxWx,2013-03-03 20:27:00,
2013-03-03 15:32:00,57.6,40.0,30.01,NW,321,13.0,13.0,51,0.00,,,0.00,TxWx,2013-03-03 20:32:00,
2013-03-03 15:33:00,57.6,39.0,30.01,WNW,298,9.3,9.9,50,0.00,,,0.00,TxWx,2013-03-03 20:33:00,
2013-03-03 15:38:00,57.4,38.0,30.01,WNW,298,17.3,19.2,50,0.00,,,0.00,TxWx,2013-03-03 20:38:00,
2013-03-03 15:39:00,57.2,38.0,30.01,NW,321,18.6,18.6,49,0.00,,,0.00,TxWx,2013-03-03 20:39:00,
2013-03-03 15:40:00,57.4,38.0,30.01,NW,321,13.6,16.7,49,0.00,,,0.00,TxWx,2013-03-03 20:40:00,
2013-03-03 15:43:00,57.8,41.0,30.01,WNW,298,13.0,13.6,53,0.00,,,0.00,TxWx,2013-03-03 20:43:00,
2013-03-03 15:45:00,57.7,39.0,30.01,WNW,298,17.9,17.9,50,0.00,,,0.00,TxWx,2013-03-03 20:45:00,
2013-03-03 15:46:00,57.8,39.0,30.00,WNW,298,19.2,19.2,50,0.00,,,0.00,TxWx,2013-03-03 20:46:00,
2013-03-03 15:47:00,58.0,39.0,30.00,West,276,15.5,19.2,49,0.00,,,0.00,TxWx,2013-03-03 20:47:00,
2013-03-03 15:49:00,57.4,37.0,30.00,WNW,298,17.3,17.3,47,0.00,,,0.00,TxWx,2013-03-03 20:49:00,
2013-03-03 15:50:00,57.7,37.0,30.00,West,276,19.8,19.8,46,0.00,,,0.00,TxWx,2013-03-03 20:50:00,
2013-03-03 15:52:00,57.7,39.0,30.01,West,276,16.7,16.7,49,0.00,,,0.00,TxWx,2013-03-03 20:52:00,
2013-03-03 15:54:00,57.6,38.0,30.01,WNW,298,12.4,13.6,47,0.00,,,0.00,TxWx,2013-03-03 20:54:00,
2013-03-03 15:56:00,58.3,40.0,30.01,West,276,16.1,16.1,51,0.00,,,0.00,TxWx,2013-03-03 20:56:00,
2013-03-03 15:58:00,58.4,39.0,30.00,WNW,298,17.3,17.3,49,0.00,,,0.00,TxWx,2013-03-03 20:58:00,
2013-03-03 15:59:00,58.2,38.0,30.00,WNW,298,14.9,14.9,48,0.00,,,0.00,TxWx,2013-03-03 20:59:00,
2013-03-03 16:00:00,58.0,37.0,30.01,WNW,298,12.4,13.6,46,0.00,,,0.00,TxWx,2013-03-03 21:00:00,
2013-03-03 16:03:00,58.3,40.0,30.01,NW,321,8.0,8.0,51,0.00,,,0.00,TxWx,2013-03-03 21:03:00,
2013-03-03 16:05:00,58.0,37.0,30.01,WNW,298,5.6,6.2,46,0.00,,,0.00,TxWx,2013-03-03 21:05:00,
2013-03-03 16:06:00,58.1,37.0,30.01,WNW,298,9.9,9.9,46,0.00,,,0.00,TxWx,2013-03-03 21:06:00,
2013-03-03 16:11:00,58.6,39.0,30.01,West,276,13.6,13.6,48,0.00,,,0.00,TxWx,2013-03-03 21:11:00,
2013-03-03 16:13:00,58.5,38.0,30.01,WNW,298,15.5,16.7,47,0.00,,,0.00,TxWx,2013-03-03 21:13:00,
2013-03-03 16:16:00,58.1,39.0,30.01,WNW,298,9.3,10.5,49,0.00,,,0.00,TxWx,2013-03-03 21:16:00,
2013-03-03 16:17:00,58.2,39.0,30.01,WNW,298,11.8,13.0,50,0.00,,,0.00,TxWx,2013-03-03 21:17:00,
2013-03-03 16:21:00,57.8,38.0,30.01,WNW,298,13.6,16.1,48,0.00,,,0.00,TxWx,2013-03-03 21:21:00,
2013-03-03 16:22:00,58.1,40.0,30.01,WNW,298,18.6,21.0,51,0.00,,,0.00,TxWx,2013-03-03 21:22:00,
2013-03-03 16:23:00,58.1,39.0,30.02,West,276,14.2,14.2,50,0.00,,,0.00,TxWx,2013-03-03 21:23:00,
2013-03-03 16:28:00,58.3,38.0,30.01,West,276,17.9,17.9,48,0.00,,,0.00,TxWx,2013-03-03 21:28:00,
2013-03-03 16:29:00,58.1,37.0,30.01,WNW,298,15.5,15.5,46,0.00,,,0.00,TxWx,2013-03-03 21:29:00,
2013-03-03 16:30:00,58.6,41.0,30.01,WNW,298,13.6,14.2,51,0.00,,,0.00,TxWx,2013-03-03 21:30:00,
2013-03-03 16:34:00,58.5,39.0,30.02,West,276,20.4,20.4,47,0.00,,,0.00,TxWx,2013-03-03 21:34:00,
2013-03-03 16:35:00,58.6,39.0,30.02,West,276,13.0,15.5,48,0.00,,,0.00,TxWx,2013-03-03 21:35:00,
2013-03-03 16:40:00,58.5,38.0,30.02,WNW,298,11.8,11.8,48,0.00,,,0.00,TxWx,2013-03-03 21:40:00,
2013-03-03 16:41:00,58.2,38.0,30.02,WNW,298,13.0,13.0,47,0.00,,,0.00,TxWx,2013-03-03 21:41:00,
2013-03-03 16:43:00,58.1,38.0,30.01,WNW,298,12.4,14.2,47,0.00,,,0.00,TxWx,2013-03-03 21:43:00,
2013-03-03 16:46:00,58.5,40.0,30.02,West,276,16.1,16.7,50,0.00,,,0.00,TxWx,2013-03-03 21:46:00,
2013-03-03 16:47:00,58.6,41.0,30.02,West,276,16.7,17.3,51,0.00,,,0.00,TxWx,2013-03-03 21:47:00,
2013-03-03 16:49:00,58.6,39.0,30.02,WNW,298,16.7,16.7,48,0.00,,,0.00,TxWx,2013-03-03 21:49:00,
2013-03-03 16:51:00,58.2,37.0,30.02,WNW,298,16.7,16.7,46,0.00,,,0.00,TxWx,2013-03-03 21:51:00,
2013-03-03 16:52:00,58.4,38.0,30.02,West,276,16.1,19.8,48,0.00,,,0.00,TxWx,2013-03-03 21:52:00,
2013-03-03 16:55:00,58.4,38.0,30.02,West,276,15.5,17.9,47,0.00,,,0.00,TxWx,2013-03-03 21:55:00,
2013-03-03 16:57:00,58.4,38.0,30.03,WNW,298,17.3,18.6,47,0.00,,,0.00,TxWx,2013-03-03 21:57:00,
2013-03-03 16:59:00,58.4,38.0,30.03,WNW,298,17.9,17.9,48,0.00,,,0.00,TxWx,2013-03-03 21:59:00,
2013-03-03 17:00:00,58.4,38.0,30.03,West,276,14.2,15.5,48,0.00,,,0.00,TxWx,2013-03-03 22:00:00,
2013-03-03 17:03:00,58.8,41.0,30.03,NW,321,20.4,20.4,51,0.00,,,0.00,TxWx,2013-03-03 22:03:00,
2013-03-03 17:04:00,58.5,40.0,30.03,West,276,19.8,20.4,50,0.00,,,0.00,TxWx,2013-03-03 22:04:00,
2013-03-03 17:05:00,58.4,39.0,30.03,West,276,16.7,18.6,49,0.00,,,0.00,TxWx,2013-03-03 22:05:00,
2013-03-03 17:06:00,58.3,38.0,30.03,West,276,12.4,14.2,47,0.00,,,0.00,TxWx,2013-03-03 22:06:00,
2013-03-03 17:08:00,58.6,41.0,30.03,WNW,298,12.4,16.1,52,0.00,,,0.00,TxWx,2013-03-03 22:08:00,
2013-03-03 17:11:00,58.3,38.0,30.03,West,276,18.6,18.6,48,0.00,,,0.00,TxWx,2013-03-03 22:11:00,
2013-03-03 17:13:00,58.3,38.0,30.03,WNW,298,14.2,15.5,48,0.00,,,0.00,TxWx,2013-03-03 22:13:00,
2013-03-03 17:14:00,58.5,39.0,30.03,WNW,298,13.6,13.6,49,0.00,,,0.00,TxWx,2013-03-03 22:14:00,
2013-03-03 17:17:00,58.7,41.0,30.03,West,276,14.2,15.5,52,0.00,,,0.00,TxWx,2013-03-03 22:17:00,
2013-03-03 17:18:00,58.5,39.0,30.03,WNW,298,11.1,12.4,47,0.00,,,0.00,TxWx,2013-03-03 22:18:00,
2013-03-03 17:19:00,58.6,39.0,30.03,WNW,298,11.8,13.0,48,0.00,,,0.00,TxWx,2013-03-03 22:19:00,
2013-03-03 17:20:00,58.6,38.0,30.03,West,276,13.6,15.5,47,0.00,,,0.00,TxWx,2013-03-03 22:20:00,
2013-03-03 17:23:00,58.6,38.0,30.02,WNW,298,17.3,19.2,46,0.00,,,0.00,TxWx,2013-03-03 22:23:00,
2013-03-03 17:24:00,58.6,38.0,30.03,West,276,13.0,13.6,47,0.00,,,0.00,TxWx,2013-03-03 22:24:00,
2013-03-03 17:25:00,58.6,39.0,30.02,WNW,298,13.0,19.2,48,0.00,,,0.00,TxWx,2013-03-03 22:25:00,
2013-03-03 17:26:00,58.5,40.0,30.02,West,276,18.6,19.2,49,0.00,,,0.00,TxWx,2013-03-03 22:26:00,
2013-03-03 17:30:00,58.3,38.0,30.03,WNW,298,14.2,15.5,47,0.00,,,0.00,TxWx,2013-03-03 22:30:00,
2013-03-03 17:31:00,58.4,39.0,30.03,West,276,19.2,19.2,50,0.00,,,0.00,TxWx,2013-03-03 22:31:00,
2013-03-03 17:32:00,58.5,40.0,30.03,WNW,298,21.0,21.0,51,0.00,,,0.00,TxWx,2013-03-03 22:32:00,
2013-03-03 17:35:00,58.3,40.0,30.03,WNW,298,16.7,16.7,51,0.00,,,0.00,TxWx,2013-03-03 22:35:00,
2013-03-03 17:37:00,58.1,39.0,30.03,NW,321,14.2,19.2,49,0.00,,,0.00,TxWx,2013-03-03 22:37:00,
2013-03-03 17:40:00,58.2,40.0,30.03,NW,321,12.4,17.3,51,0.00,,,0.00,TxWx,2013-03-03 22:40:00,
2013-03-03 17:41:00,58.1,39.0,30.03,West,276,10.5,11.8,50,0.00,,,0.00,TxWx,2013-03-03 22:41:00,
2013-03-03 17:44:00,57.6,39.0,30.03,WNW,298,20.4,24.8,50,0.00,,,0.01,TxWx,2013-03-03 22:44:00,
2013-03-03 17:46:00,57.9,41.0,30.03,WNW,298,9.9,10.5,54,0.06,,,0.01,TxWx,2013-03-03 22:46:00,
2013-03-03 17:49:00,57.5,39.0,30.03,NW,321,11.8,12.4,52,0.06,,,0.01,TxWx,2013-03-03 22:49:00,
2013-03-03 17:52:00,57.5,40.0,30.04,NW,321,8.7,10.5,52,0.06,,,0.01,TxWx,2013-03-03 22:52:00,
2013-03-03 17:55:00,57.4,39.0,30.04,NW,321,13.6,14.2,51,0.00,,,0.01,TxWx,2013-03-03 22:55:00,
2013-03-03 17:57:00,57.4,40.0,30.04,WNW,298,13.6,13.6,52,0.00,,,0.01,TxWx,2013-03-03 22:57:00,
2013-03-03 17:58:00,57.2,39.0,30.04,NW,321,13.6,15.5,50,0.00,,,0.01,TxWx,2013-03-03 22:58:00,
2013-03-03 18:02:00,57.3,40.0,30.04,West,276,11.1,12.4,53,0.00,,,0.01,TxWx,2013-03-03 23:02:00,
2013-03-03 18:03:00,57.3,41.0,30.04,WNW,298,10.5,10.5,55,0.00,,,0.01,TxWx,2013-03-03 23:03:00,
2013-03-03 18:05:00,57.1,39.0,30.04,NW,321,12.4,12.4,51,0.00,,,0.01,TxWx,2013-03-03 23:05:00,
2013-03-03 18:07:00,57.0,40.0,30.04,WNW,298,16.1,16.1,53,0.00,,,0.01,TxWx,2013-03-03 23:07:00,
2013-03-03 18:08:00,57.0,40.0,30.05,West,276,20.4,20.4,53,0.00,,,0.01,TxWx,2013-03-03 23:08:00,
2013-03-03 18:09:00,56.9,39.0,30.05,WNW,298,15.5,19.2,51,0.00,,,0.01,TxWx,2013-03-03 23:09:00,
2013-03-03 18:11:00,57.0,40.0,30.05,NW,321,14.2,14.2,53,0.00,,,0.01,TxWx,2013-03-03 23:11:00,
2013-03-03 18:14:00,57.0,40.0,30.05,WNW,298,9.3,12.4,53,0.00,,,0.01,TxWx,2013-03-03 23:14:00,
2013-03-03 18:17:00,56.9,39.0,30.05,WNW,298,17.3,17.9,52,0.00,,,0.01,TxWx,2013-03-03 23:17:00,
2013-03-03 18:18:00,57.0,40.0,30.05,West,276,11.8,15.5,52,0.00,,,0.01,TxWx,2013-03-03 23:18:00,
2013-03-03 18:19:00,57.2,41.0,30.05,WNW,298,7.4,7.4,55,0.00,,,0.01,TxWx,2013-03-03 23:19:00,
2013-03-03 18:24:00,57.0,40.0,30.06,WNW,298,12.4,14.9,53,0.00,,,0.01,TxWx,2013-03-03 23:24:00,
2013-03-03 18:25:00,56.8,39.0,30.05,West,276,16.1,17.9,50,0.00,,,0.01,TxWx,2013-03-03 23:25:00,
2013-03-03 18:29:00,56.9,39.0,30.06,West,276,13.0,14.9,51,0.00,,,0.01,TxWx,2013-03-03 23:29:00,
2013-03-03 18:30:00,57.0,40.0,30.06,WNW,298,16.1,16.1,54,0.00,,,0.01,TxWx,2013-03-03 23:30:00,
2013-03-03 18:31:00,56.9,40.0,30.06,WNW,298,14.9,14.9,52,0.00,,,0.01,TxWx,2013-03-03 23:31:00,
2013-03-03 18:35:00,56.8,39.0,30.06,NW,321,16.7,16.7,52,0.00,,,0.01,TxWx,2013-03-03 23:35:00,
2013-03-03 18:36:00,56.7,39.0,30.06,WNW,298,8.7,10.5,51,0.00,,,0.01,TxWx,2013-03-03 23:36:00,
2013-03-03 18:39:00,56.5,39.0,30.07,NW,321,15.5,16.1,52,0.00,,,0.01,TxWx,2013-03-03 23:39:00,
2013-03-03 18:40:00,56.7,41.0,30.07,NW,321,10.5,11.1,55,0.00,,,0.01,TxWx,2013-03-03 23:40:00,
2013-03-03 18:41:00,56.5,40.0,30.06,WNW,298,10.5,11.8,53,0.00,,,0.01,TxWx,2013-03-03 23:41:00,
2013-03-03 18:44:00,56.2,39.0,30.06,NW,321,14.2,15.5,52,0.00,,,0.01,TxWx,2013-03-03 23:44:00,
2013-03-03 18:46:00,56.2,40.0,30.06,WNW,298,9.9,10.5,55,0.00,,,0.01,TxWx,2013-03-03 23:46:00,
2013-03-03 18:50:00,56.3,40.0,30.07,West,276,11.1,11.8,56,0.00,,,0.01,TxWx,2013-03-03 23:50:00,
2013-03-03 18:52:00,56.1,40.0,30.07,WNW,298,14.2,16.7,55,0.00,,,0.01,TxWx,2013-03-03 23:52:00,
2013-03-03 18:53:00,56.1,40.0,30.07,West,276,16.7,16.7,56,0.00,,,0.01,TxWx,2013-03-03 23:53:00,
2013-03-03 18:55:00,56.1,40.0,30.06,WNW,298,10.5,10.5,55,0.00,,,0.01,TxWx,2013-03-03 23:55:00,
2013-03-03 18:57:00,56.0,40.0,30.07,WNW,298,10.5,11.8,55,0.00,,,0.01,TxWx,2013-03-03 23:57:00,
2013-03-03 18:58:00,55.9,39.0,30.07,WNW,298,13.6,13.6,54,0.00,,,0.01,TxWx,2013-03-03 23:58:00,
2013-03-03 19:00:00,56.0,41.0,30.07,NW,321,13.6,13.6,57,0.00,,,0.01,TxWx,2013-03-04 00:00:00,
2013-03-03 19:01:00,55.8,39.0,30.07,WNW,298,9.9,11.1,53,0.00,,,0.01,TxWx,2013-03-04 00:01:00,
2013-03-03 19:03:00,55.8,40.0,30.07,WNW,298,12.4,12.4,54,0.00,,,0.01,TxWx,2013-03-04 00:03:00,
2013-03-03 19:04:00,56.0,41.0,30.07,WNW,298,9.9,13.0,57,0.00,,,0.01,TxWx,2013-03-04 00:04:00,
2013-03-03 19:07:00,55.8,40.0,30.07,WNW,298,8.7,8.7,56,0.00,,,0.01,TxWx,2013-03-04 00:07:00,
2013-03-03 19:09:00,55.9,41.0,30.07,WNW,298,10.5,10.5,58,0.00,,,0.01,TxWx,2013-03-04 00:09:00,
2013-03-03 19:11:00,55.7,40.0,30.07,WNW,298,10.5,13.0,56,0.00,,,0.01,TxWx,2013-03-04 00:11:00,
2013-03-03 19:14:00,55.6,40.0,30.07,NW,321,7.4,10.5,56,0.00,,,0.01,TxWx,2013-03-04 00:14:00,
2013-03-03 19:15:00,55.4,39.0,30.08,NW,321,11.1,12.4,54,0.00,,,0.01,TxWx,2013-03-04 00:15:00,
2013-03-03 19:16:00,55.3,39.0,30.08,WNW,298,11.8,11.8,54,0.00,,,0.01,TxWx,2013-03-04 00:16:00,
2013-03-03 19:20:00,55.2,39.0,30.08,WNW,298,10.5,10.5,55,0.00,,,0.01,TxWx,2013-03-04 00:20:00,
2013-03-03 19:21:00,55.3,40.0,30.08,NW,321,9.3,9.9,58,0.00,,,0.01,TxWx,2013-03-04 00:21:00,
2013-03-03 19:22:00,55.3,40.0,30.08,WNW,298,6.8,6.8,57,0.00,,,0.01,TxWx,2013-03-04 00:22:00,
2013-03-03 19:25:00,55.2,40.0,30.08,WNW,298,8.0,8.0,58,0.00,,,0.01,TxWx,2013-03-04 00:25:00,
2013-03-03 19:26:00,55.2,40.0,30.08,West,276,6.8,8.7,58,0.00,,,0.01,TxWx,2013-03-04 00:26:00,
2013-03-03 19:27:00,55.2,40.0,30.08,NW,321,4.3,5.0,58,0.00,,,0.01,TxWx,2013-03-04 00:27:00,
2013-03-03 19:31:00,55.1,41.0,30.08,WNW,298,7.4,10.5,59,0.00,,,0.01,TxWx,2013-03-04 00:31:00,
2013-03-03 19:32:00,55.0,40.0,30.08,NW,321,9.3,9.3,58,0.00,,,0.01,TxWx,2013-03-04 00:32:00,
2013-03-03 19:33:00,54.9,39.0,30.08,WNW,298,8.7,11.1,56,0.00,,,0.01,TxWx,2013-03-04 00:33:00,
2013-03-03 19:36:00,55.0,40.0,30.08,NW,321,10.5,10.5,58,0.00,,,0.01,TxWx,2013-03-04 00:36:00,
2013-03-03 19:37:00,54.9,40.0,30.09,West,276,11.1,11.1,58,0.00,,,0.01,TxWx,2013-03-04 00:37:00,
2013-03-03 19:38:00,55.0,40.0,30.08,WNW,298,5.0,6.2,58,0.00,,,0.01,TxWx,2013-03-04 00:38:00,
2013-03-03 19:40:00,54.9,40.0,30.08,WNW,298,8.7,9.3,58,0.00,,,0.01,TxWx,2013-03-04 00:40:00,
2013-03-03 19:42:00,54.9,40.0,30.09,WNW,298,9.3,9.3,58,0.00,,,0.01,TxWx,2013-03-04 00:42:00,
2013-03-03 19:43:00,54.8,40.0,30.09,West,276,14.9,14.9,58,0.00,,,0.01,TxWx,2013-03-04 00:43:00,
2013-03-03 19:47:00,54.8,40.0,30.09,West,276,13.0,13.0,57,0.00,,,0.01,TxWx,2013-03-04 00:47:00,
2013-03-03 19:48:00,54.8,40.0,30.09,WNW,298,12.4,13.0,57,0.00,,,0.01,TxWx,2013-03-04 00:48:00,
2013-03-03 19:52:00,54.6,40.0,30.09,WNW,298,11.8,12.4,56,0.00,,,0.01,TxWx,2013-03-04 00:52:00,
2013-03-03 19:53:00,54.7,40.0,30.09,WNW,298,14.2,14.2,57,0.00,,,0.01,TxWx,2013-03-04 00:53:00,
2013-03-03 19:55:00,54.6,40.0,30.09,West,276,11.1,11.1,57,0.00,,,0.01,TxWx,2013-03-04 00:55:00,
2013-03-03 19:58:00,54.5,40.0,30.09,West,276,8.0,8.0,58,0.00,,,0.01,TxWx,2013-03-04 00:58:00,
2013-03-03 19:59:00,54.7,41.0,30.09,WNW,298,5.6,8.0,59,0.00,,,0.01,TxWx,2013-03-04 00:59:00,
2013-03-03 20:04:00,54.6,41.0,30.10,NW,321,6.2,6.2,60,0.00,,,0.01,TxWx,2013-03-04 01:04:00,
2013-03-03 20:05:00,54.3,39.0,30.09,WNW,298,9.3,9.9,57,0.00,,,0.01,TxWx,2013-03-04 01:05:00,
2013-03-03 20:09:00,54.3,40.0,30.10,WNW,298,6.8,6.8,58,0.00,,,0.01,TxWx,2013-03-04 01:09:00,
2013-03-03 20:10:00,54.4,41.0,30.10,NW,321,6.8,7.4,61,0.00,,,0.01,TxWx,2013-03-04 01:10:00,
2013-03-03 20:11:00,54.3,40.0,30.10,NW,321,5.6,6.8,59,0.00,,,0.01,TxWx,2013-03-04 01:11:00,
2013-03-03 20:14:00,54.3,40.0,30.10,WNW,298,7.4,7.4,60,0.00,,,0.01,TxWx,2013-03-04 01:14:00,
2013-03-03 20:16:00,54.1,40.0,30.10,WNW,298,9.3,9.3,59,0.00,,,0.01,TxWx,2013-03-04 01:16:00,
2013-03-03 20:17:00,54.0,40.0,30.10,West,276,13.6,15.5,59,0.00,,,0.01,TxWx,2013-03-04 01:17:00,
2013-03-03 20:18:00,54.1,40.0,30.10,NW,321,9.3,9.3,59,0.00,,,0.01,TxWx,2013-03-04 01:18:00,
2013-03-03 20:19:00,54.1,40.0,30.10,NW,321,8.7,8.7,60,0.00,,,0.01,TxWx,2013-03-04 01:19:00,
2013-03-03 20:22:00,53.9,40.0,30.10,NW,321,10.5,10.5,58,0.00,,,0.01,TxWx,2013-03-04 01:22:00,
2013-03-03 20:24:00,53.8,40.0,30.10,West,276,11.1,11.8,59,0.00,,,0.01,TxWx,2013-03-04 01:24:00,
2013-03-03 20:25:00,53.9,40.0,30.10,West,276,12.4,12.4,59,0.00,,,0.01,TxWx,2013-03-04 01:25:00,
2013-03-03 20:27:00,53.8,40.0,30.10,WNW,298,10.5,10.5,58,0.00,,,0.01,TxWx,2013-03-04 01:27:00,
2013-03-03 20:28:00,53.8,40.0,30.10,WNW,298,9.3,10.5,59,0.00,,,0.01,TxWx,2013-03-04 01:28:00,
2013-03-03 20:30:00,53.9,40.0,30.11,WNW,298,9.9,9.9,59,0.00,,,0.01,TxWx,2013-03-04 01:30:00,
2013-03-03 20:34:00,53.8,40.0,30.11,WNW,298,9.9,9.9,60,0.00,,,0.01,TxWx,2013-03-04 01:34:00,
2013-03-03 20:35:00,53.9,41.0,30.11,WSW,253,11.1,11.1,62,0.00,,,0.01,TxWx,2013-03-04 01:35:00,
2013-03-03 20:36:00,53.7,40.0,30.11,WNW,298,10.5,11.8,59,0.00,,,0.01,TxWx,2013-03-04 01:36:00,
2013-03-03 20:39:00,53.9,41.0,30.11,WNW,298,8.7,8.7,62,0.00,,,0.01,TxWx,2013-03-04 01:39:00,
2013-03-03 20:40:00,53.8,41.0,30.11,West,276,14.2,14.2,61,0.00,,,0.01,TxWx,2013-03-04 01:40:00,
2013-03-03 20:41:00,53.8,40.0,30.11,WNW,298,8.7,8.7,60,0.00,,,0.01,TxWx,2013-03-04 01:41:00,
2013-03-03 20:43:00,53.7,41.0,30.11,WNW,298,11.1,11.1,61,0.00,,,0.01,TxWx,2013-03-04 01:43:00,
2013-03-03 20:45:00,53.8,41.0,30.11,West,276,8.7,9.9,61,0.00,,,0.01,TxWx,2013-03-04 01:45:00,
2013-03-03 20:48:00,53.6,40.0,30.11,WNW,298,8.7,8.7,60,0.00,,,0.01,TxWx,2013-03-04 01:48:00,
2013-03-03 20:51:00,53.7,41.0,30.11,NW,321,8.7,8.7,61,0.00,,,0.01,TxWx,2013-03-04 01:51:00,
2013-03-03 20:55:00,53.6,41.0,30.12,WNW,298,11.8,13.6,61,0.00,,,0.01,TxWx,2013-03-04 01:55:00,
2013-03-03 20:56:00,53.5,40.0,30.12,West,276,13.0,13.0,61,0.00,,,0.01,TxWx,2013-03-04 01:56:00,
2013-03-03 20:58:00,53.4,40.0,30.12,West,276,9.3,9.3,61,0.00,,,0.01,TxWx,2013-03-04 01:58:00,
2013-03-03 21:01:00,53.3,39.0,30.12,WNW,298,9.3,9.3,59,0.00,,,0.01,TxWx,2013-03-04 02:01:00,
2013-03-03 21:02:00,53.4,39.0,30.12,WNW,298,8.7,8.7,60,0.00,,,0.01,TxWx,2013-03-04 02:02:00,
2013-03-03 21:05:00,53.3,40.0,30.12,WNW,298,9.3,9.9,62,0.00,,,0.01,TxWx,2013-03-04 02:05:00,
2013-03-03 21:07:00,53.2,40.0,30.12,NW,321,11.1,11.8,61,0.00,,,0.01,TxWx,2013-03-04 02:07:00,
2013-03-03 21:08:00,53.3,40.0,30.12,WNW,298,8.0,9.9,61,0.00,,,0.01,TxWx,2013-03-04 02:08:00,
2013-03-03 21:12:00,53.3,41.0,30.12,West,276,10.5,11.8,63,0.00,,,0.01,TxWx,2013-03-04 02:12:00,
2013-03-03 21:14:00,53.3,40.0,30.13,West,276,12.4,12.4,62,0.00,,,0.01,TxWx,2013-03-04 02:14:00,
2013-03-03 21:19:00,53.0,40.0,30.13,West,276,8.7,9.3,61,0.00,,,0.01,TxWx,2013-03-04 02:19:00,
2013-03-03 21:20:00,53.0,40.0,30.13,WNW,298,9.9,9.9,62,0.00,,,0.01,TxWx,2013-03-04 02:20:00,
2013-03-03 21:22:00,52.9,40.0,30.13,WNW,298,9.3,9.3,61,0.00,,,0.01,TxWx,2013-03-04 02:22:00,
2013-03-03 21:24:00,53.0,41.0,30.13,WNW,298,6.8,7.4,63,0.00,,,0.01,TxWx,2013-03-04 02:24:00,
2013-03-03 21:25:00,52.9,40.0,30.13,NW,321,11.8,11.8,62,0.00,,,0.01,TxWx,2013-03-04 02:25:00,
2013-03-03 21:28:00,52.9,41.0,30.13,WNW,298,11.1,11.1,63,0.00,,,0.01,TxWx,2013-03-04 02:28:00,
2013-03-03 21:29:00,53.0,41.0,30.13,NNW,343,9.3,9.3,63,0.00,,,0.01,TxWx,2013-03-04 02:29:00,
2013-03-03 21:30:00,53.0,41.0,30.14,WNW,298,11.8,11.8,64,0.00,,,0.01,TxWx,2013-03-04 02:30:00,
2013-03-03 21:35:00,52.9,41.0,30.13,WNW,298,9.9,10.5,63,0.00,,,0.01,TxWx,2013-03-04 02:35:00,
2013-03-03 21:36:00,52.7,40.0,30.13,WNW,298,11.8,11.8,62,0.00,,,0.01,TxWx,2013-03-04 02:36:00,
2013-03-03 21:41:00,52.8,41.0,30.14,WNW,298,13.0,13.0,63,0.00,,,0.01,TxWx,2013-03-04 02:41:00,
2013-03-03 21:42:00,52.7,41.0,30.14,NW,321,8.7,10.5,63,0.00,,,0.01,TxWx,2013-03-04 02:42:00,
2013-03-03 21:46:00,52.9,41.0,30.14,West,276,8.0,8.0,64,0.00,,,0.01,TxWx,2013-03-04 02:46:00,
2013-03-03 21:47:00,52.7,41.0,30.14,WNW,298,9.9,9.9,64,0.00,,,0.01,TxWx,2013-03-04 02:47:00,
2013-03-03 21:48:00,52.7,41.0,30.14,West,276,11.8,11.8,63,0.00,,,0.01,TxWx,2013-03-04 02:48:00,
2013-03-03 21:49:00,52.5,40.0,30.14,WNW,298,11.1,11.1,62,0.00,,,0.01,TxWx,2013-03-04 02:49:00,
2013-03-03 21:52:00,52.6,41.0,30.14,NW,321,8.7,10.5,63,0.00,,,0.01,TxWx,2013-03-04 02:52:00,
2013-03-03 21:55:00,52.7,41.0,30.14,WNW,298,10.5,10.5,65,0.00,,,0.01,TxWx,2013-03-04 02:55:00,
2013-03-03 21:57:00,52.4,39.0,30.14,WNW,298,11.8,12.4,62,0.00,,,0.01,TxWx,2013-03-04 02:57:00,
2013-03-03 21:58:00,52.4,39.0,30.14,WNW,298,9.3,9.3,62,0.00,,,0.01,TxWx,2013-03-04 02:58:00,
2013-03-03 22:00:00,52.3,40.0,30.14,NW,321,11.8,11.8,63,0.00,,,0.01,TxWx,2013-03-04 03:00:00,
2013-03-03 22:02:00,52.3,40.0,30.14,NW,321,8.0,9.3,63,0.00,,,0.01,TxWx,2013-03-04 03:02:00,
2013-03-03 22:03:00,52.4,40.0,30.14,WNW,298,11.8,13.6,64,0.00,,,0.01,TxWx,2013-03-04 03:03:00,
2013-03-03 22:05:00,52.2,39.0,30.14,WNW,298,9.9,11.1,62,0.00,,,0.01,TxWx,2013-03-04 03:05:00,
2013-03-03 22:08:00,52.3,40.0,30.14,WNW,298,9.3,9.3,63,0.00,,,0.01,TxWx,2013-03-04 03:08:00,
2013-03-03 22:09:00,52.2,40.0,30.14,West,276,10.5,10.5,63,0.00,,,0.01,TxWx,2013-03-04 03:09:00,
2013-03-03 22:12:00,52.3,40.0,30.14,NW,321,6.8,8.0,65,0.00,,,0.01,TxWx,2013-03-04 03:12:00,
2013-03-03 22:14:00,52.2,40.0,30.14,WNW,298,10.5,11.1,64,0.00,,,0.01,TxWx,2013-03-04 03:14:00,
2013-03-03 22:15:00,52.2,40.0,30.14,WNW,298,9.3,12.4,63,0.00,,,0.01,TxWx,2013-03-04 03:15:00,
2013-03-03 22:20:00,52.1,39.0,30.15,West,276,8.0,10.5,62,0.00,,,0.01,TxWx,2013-03-04 03:20:00,
2013-03-03 22:21:00,52.2,40.0,30.15,WNW,298,8.7,8.7,63,0.00,,,0.01,TxWx,2013-03-04 03:21:00,
2013-03-03 22:26:00,52.0,39.0,30.15,WNW,298,9.9,9.9,62,0.00,,,0.01,TxWx,2013-03-04 03:26:00,
2013-03-03 22:28:00,51.9,39.0,30.15,WNW,298,11.1,11.1,61,0.00,,,0.01,TxWx,2013-03-04 03:28:00,
2013-03-03 22:31:00,51.8,39.0,30.15,WNW,298,12.4,12.4,61,0.00,,,0.01,TxWx,2013-03-04 03:31:00,
2013-03-03 22:33:00,52.2,41.0,30.15,NW,321,8.0,8.0,65,0.00,,,0.01,TxWx,2013-03-04 03:33:00,
2013-03-03 22:35:00,52.1,40.0,30.15,WNW,298,12.4,12.4,65,0.00,,,0.01,TxWx,2013-03-04 03:35:00,
2013-03-03 22:36:00,51.8,39.0,30.15,NW,321,6.2,7.4,62,0.00,,,0.01,TxWx,2013-03-04 03:36:00,
2013-03-03 22:39:00,51.7,39.0,30.15,WNW,298,7.4,8.0,62,0.00,,,0.01,TxWx,2013-03-04 03:39:00,
2013-03-03 22:40:00,51.8,40.0,30.15,NW,321,7.4,9.3,63,0.00,,,0.01,TxWx,2013-03-04 03:40:00,
2013-03-03 22:42:00,51.7,40.0,30.15,WNW,298,11.1,11.8,63,0.00,,,0.01,TxWx,2013-03-04 03:42:00,
2013-03-03 22:46:00,51.6,40.0,30.15,WNW,298,10.5,14.2,63,0.00,,,0.01,TxWx,2013-03-04 03:46:00,
2013-03-03 22:47:00,51.6,40.0,30.15,West,276,11.1,11.1,63,0.00,,,0.01,TxWx,2013-03-04 03:47:00,
2013-03-03 22:49:00,51.6,40.0,30.15,West,276,11.1,11.8,63,0.00,,,0.01,TxWx,2013-03-04 03:49:00,
2013-03-03 22:52:00,51.8,41.0,30.16,WNW,298,8.0,10.5,66,0.00,,,0.01,TxWx,2013-03-04 03:52:00,
2013-03-03 22:53:00,51.4,38.0,30.15,WNW,298,11.1,11.1,62,0.00,,,0.01,TxWx,2013-03-04 03:53:00,
2013-03-03 22:55:00,51.6,40.0,30.15,West,276,11.8,13.6,64,0.00,,,0.01,TxWx,2013-03-04 03:55:00,
2013-03-03 22:57:00,51.4,39.0,30.16,West,276,11.8,12.4,63,0.00,,,0.01,TxWx,2013-03-04 03:57:00,
2013-03-03 22:58:00,51.6,40.0,30.16,WNW,298,9.3,9.3,63,0.00,,,0.01,TxWx,2013-03-04 03:58:00,
2013-03-03 22:59:00,51.6,40.0,30.16,West,276,11.1,11.1,65,0.00,,,0.01,TxWx,2013-03-04 03:59:00,
2013-03-03 23:01:00,51.5,39.0,30.16,WNW,298,12.4,12.4,64,0.00,,,0.01,TxWx,2013-03-04 04:01:00,
2013-03-03 23:03:00,51.5,39.0,30.16,WNW,298,6.8,8.0,63,0.00,,,0.01,TxWx,2013-03-04 04:03:00,
2013-03-03 23:04:00,51.4,39.0,30.16,WNW,298,7.4,9.3,64,0.00,,,0.01,TxWx,2013-03-04 04:04:00,
2013-03-03 23:08:00,51.2,39.0,30.16,WNW,298,10.5,10.5,64,0.00,,,0.01,TxWx,2013-03-04 04:08:00,
2013-03-03 23:09:00,51.3,39.0,30.16,NW,321,8.7,9.3,65,0.00,,,0.01,TxWx,2013-03-04 04:09:00,
2013-03-03 23:14:00,51.0,38.0,30.16,NW,321,8.7,8.7,62,0.00,,,0.01,TxWx,2013-03-04 04:14:00,
2013-03-03 23:15:00,51.2,39.0,30.16,West,276,7.4,8.7,64,0.00,,,0.01,TxWx,2013-03-04 04:15:00,
2013-03-03 23:20:00,50.9,39.0,30.17,WNW,298,7.4,7.4,64,0.00,,,0.01,TxWx,2013-03-04 04:20:00,
2013-03-03 23:21:00,50.9,39.0,30.17,NW,321,6.8,7.4,63,0.00,,,0.01,TxWx,2013-03-04 04:21:00,
2013-03-03 23:22:00,50.9,39.0,30.16,West,276,5.0,6.2,64,0.00,,,0.01,TxWx,2013-03-04 04:22:00,
2013-03-03 23:26:00,50.9,39.0,30.16,West,276,9.9,9.9,65,0.00,,,0.01,TxWx,2013-03-04 04:26:00,
2013-03-03 23:27:00,50.7,39.0,30.16,WNW,298,6.8,7.4,63,0.00,,,0.01,TxWx,2013-03-04 04:27:00,
2013-03-03 23:28:00,51.0,40.0,30.17,NNW,343,5.0,5.6,66,0.00,,,0.01,TxWx,2013-03-04 04:28:00,
2013-03-03 23:32:00,50.7,39.0,30.16,NW,321,5.0,5.6,64,0.00,,,0.01,TxWx,2013-03-04 04:32:00,
2013-03-03 23:34:00,50.7,39.0,30.17,WNW,298,7.4,7.4,65,0.00,,,0.01,TxWx,2013-03-04 04:34:00,
2013-03-03 23:37:00,50.5,39.0,30.17,WNW,298,4.3,5.0,64,0.00,,,0.01,TxWx,2013-03-04 04:37:00,
2013-03-03 23:38:00,50.5,40.0,30.17,NW,321,4.3,4.3,65,0.00,,,0.01,TxWx,2013-03-04 04:38:00,
2013-03-03 23:39:00,50.5,40.0,30.17,NW,321,5.6,6.2,66,0.00,,,0.01,TxWx,2013-03-04 04:39:00,
2013-03-03 23:40:00,50.5,39.0,30.17,NW,321,4.3,5.0,66,0.00,,,0.01,TxWx,2013-03-04 04:40:00,
2013-03-03 23:44:00,50.1,39.0,30.16,WNW,298,6.8,8.7,65,0.00,,,0.01,TxWx,2013-03-04 04:44:00,
2013-03-03 23:45:00,50.2,39.0,30.17,WNW,298,5.0,5.6,66,0.00,,,0.01,TxWx,2013-03-04 04:45:00,
2013-03-03 23:47:00,50.0,39.0,30.16,WNW,298,8.0,8.0,65,0.00,,,0.01,TxWx,2013-03-04 04:47:00,
2013-03-03 23:50:00,49.9,39.0,30.17,NW,321,6.2,7.4,66,0.00,,,0.01,TxWx,2013-03-04 04:50:00,
2013-03-03 23:52:00,49.7,39.0,30.16,WNW,298,8.0,8.0,66,0.00,,,0.01,TxWx,2013-03-04 04:52:00,
2013-03-03 23:54:00,49.6,39.0,30.16,NW,321,5.0,6.8,66,0.00,,,0.01,TxWx,2013-03-04 04:54:00,
2013-03-03 23:55:00,49.6,39.0,30.16,WNW,298,5.0,5.0,66,0.00,,,0.01,TxWx,2013-03-04 04:55:00,
2013-03-03 23:58:00,49.7,40.0,30.16,West,276,4.3,5.0,68,0.00,,,0.01,TxWx,2013-03-04 04:58:00,
2013-03-03 23:59:00,49.6,39.0,30.16,NW,321,4.3,5.0,67,0.00,,,0.01,TxWx,2013-03-04 04:59:00,